     2.10           OBSERVATION DATA    G (GPS)             RINEX VERSION / TYPE
teqc 2002Mar14 Lou Estey 20020315 16:27:08UTC               PGM / RUN BY / DATE
Solaris 2.7|Ultra 2|cc SC5.0|=+-|*Sparc                     COMMENT
BIT 2 OF LLI FLAGS DATA COLLECTED UNDER A/S CONDITION       COMMENT
-Unknown-                                                   MARKER NAME
-Unknown- -Unknown-                                         OBSERVER / AGENCY
-Unknown- TURBOROGUE -Unknown-                              REC # / TYPE / VERS
-Unknown- -Unknown-                                         ANT # / TYPE
        0.0000        0.0000        0.0000                  APPROX POSITION XYZ
        0.0000        0.0000        0.0000                  ANTENNA: DELTA H/E/N
     1     1                                                WAVELENGTH FACT L1/2
     5    L1    L2    C1    P2    P1                        # / TYPES OF OBSERV
P1 = P1 TurboRogue; = Y1 Benchmark                          COMMENT
L1 = L1(P1) TurboRogue; = L1(Y1) Benchmark                  COMMENT
P2 = P2 TurboRogue; = Y2 Benchmark                          COMMENT
L2 = L2(P2) TurboRogue; = L2(Y2) Benchmark                  COMMENT
SNR is mapped to RINEX snr flag value [1,4-9]               COMMENT
SNR: >=316 >=100 >=31.6 >=10 >=3.2 >0 bad=0                 COMMENT
L1 & L2: 9 8 7 6 5 4 1                                      COMMENT
  1995     3    13     6    47    0.0000000     GPS         TIME OF FIRST OBS
                                                            END OF HEADER
 95  3 13  6 47  0.0000000  0  1G 6
 -26449579.16249 -20610049.16948  20281212.602    20281211.877
 95  3 13  6 47 30.0000000  0  6G17G23G26G22G16G 6
 -20846523.38949 -16244036.33848  21021227.757    21021227.608
 -10336576.55149  -8054473.45947  21566351.555    21566351.495
 -15306998.90149 -11927529.16447  22190003.992    22190003.211
  -1188427.18848   -926046.56246  23857920.417    23857919.831
  -4079249.95948  -3178620.34145  24082050.971    24082050.186
 -26423444.15849 -20589684.24148  20286185.947    20286185.109
 95  3 13  6 48  0.0000000  0  6G17G23G26G22G16G 6
 -20871687.48749 -16263644.72348  21016439.173    21016438.878
 -10398562.54049  -8102774.21947  21554555.892    21554555.783
 -15336228.17749 -11950305.20747  22184441.758    22184440.206
  -1225770.84248   -955145.52846  23850813.977    23850813.640
  -3979261.56748  -3100707.31245  24101077.730    24101079.121
 -26396832.68549 -20568948.03848  20291249.904    20291249.135
 95  3 13  6 48 30.0000000  0  6G17G23G26G22G16G 6
 -20896645.98749 -16283092.90148  21011689.735    21011689.614
 -10460170.96149  -8150780.76647  21542832.218    21542832.102
 -15364928.79149 -11972669.30047  22178980.112    22178979.015
  -1262603.84748   -983846.59746  23843804.616    23843804.484
  -3879183.99348  -3022724.79045  24120121.918    24120124.456
 -26369713.35749 -20547816.09948  20296410.431    20296409.848
 95  3 13  6 49  0.0000000  0  6G17G23G26G22G16G 6
 -20921409.61449 -16302389.22648  21006977.211    21006977.239
 -10521386.46449  -8198481.14547  21531183.472    21531183.469
 -15393090.53149 -11994613.49747  22173620.890    22173619.852
  -1298946.83548  -1012165.81846  23836889.151    23836887.926
  -3779022.62248  -2944676.95045  24139182.420    24139181.280
 -26342079.25449 -20526283.04648  20301668.985    20301668.564
 95  3 13  6 49 30.0000000  0  6G17G23G26G22G16G 6
 -20945997.95849 -16321548.96348  21002298.112    21002297.875
 -10582206.25249  -8245873.17747  21519609.782    21519609.576
 -15420710.73849 -12016135.72147  22168365.001    22168363.758
  -1334827.44448  -1040124.74246  23830061.346    23830061.683
  -3678779.04248  -2866565.08046  24158258.048    24158255.875
 -26313954.47449 -20504367.64448  20307020.878    20307020.470
 95  3 13  6 50  0.0000000  0  6G17G23G26G22G16G 6
 -20970424.34149 -16340582.50248  20997650.075    20997649.660
 -10642628.29349  -8292955.27847  21508111.746    21508111.477
 -15447782.30949 -12037230.43847  22163213.261    22163211.792
  -1370242.81648  -1067721.15646  23823322.225    23823320.677
  -3578461.87048  -2788395.84246  24177347.812    24177346.809
 -26285334.46649 -20482066.35148  20312467.281    20312466.549
 95  3 13  6 50 30.0000000  0  6G17G23G26G22G16G 6
 -20994678.86149 -16359482.12348  20993034.655    20993034.255
 -10702645.09049  -8339721.60348  21496690.985    21496691.023
 -15474303.24249 -12057896.09147  22158166.508    22158165.485
  -1405163.01648  -1094931.69746  23816677.503    23816676.259
  -3478059.48248  -2710160.19646  24196453.819    24196453.479
 -26256201.44649 -20459365.31148  20318011.171    20318010.405
 95  3 13  6 51  0.0000000  0  6G17G23G26G22G16G 6
 -21018774.84549 -16378258.21148  20988449.244    20988449.170
 -10762286.11649  -8386195.11848  21485341.761    21485341.794
 -15500317.85049 -12078167.19847  22153216.201    22153214.763
  -1439594.72348  -1121761.61846  23810124.721    23810124.263
  -3377584.33648  -2631867.87946  24215573.648    24215573.236
 -26226586.62149 -20436288.83348  20323646.842    20323645.965
 95  3 13  6 51 30.0000000  0  6G23G26G22G16G 6G17
 -10821543.64249  -8432369.80447  21474065.267    21474065.183
 -15525831.24149 -12098047.75247  22148361.285    22148360.284
  -1473506.63748  -1148186.48646  23803670.875    23803670.640
  -3277028.36748  -2553512.57746  24234708.439    24234709.064
 -26196476.95749 -20412826.76848  20329376.454    20329375.767
 -21042689.19849 -16396892.76448  20983898.688    20983898.458
 95  3 13  6 52  0.0000000  0  6G23G26G22G16G 6G17
 -10880431.69149  -8478256.58047  21462859.227    21462859.148
 -15550875.35049 -12117562.63047  22143595.645    22143594.692
  -1506898.80148  -1174206.37746  23797317.017    23797315.639
  -3176423.80548  -2475119.43346  24253852.722    24253852.075
 -26165885.68149 -20388989.41848  20335197.762    20335197.070
 -21066438.68949 -16415398.85548  20979379.125    20979378.700
 95  3 13  6 52 30.0000000  0  6G23G26G22G16G 6G17
 -10938941.62649  -8523848.72648  21451725.118    21451725.212
 -15575445.88449 -12136708.48847  22138919.788    22138919.213
  -1539770.05148  -1199820.33646  23791061.767    23791061.100
  -3075760.96748  -2396680.86446  24273008.293    24273008.161
 -26134811.50349 -20364775.78348  20341111.015    20341110.360
 -21090024.54949 -16433777.44048  20974890.936    20974890.580
 95  3 13  6 53  0.0000000  0  6G23G26G22G16G 6G17
 -10997063.73149  -8569138.66648  21440664.918    21440664.691
 -15599525.55349 -12155471.85347  22134337.593    22134337.249
  -1572135.59648  -1225040.26146  23784902.885    23784902.554
  -2975040.36548  -2318197.27646  24292174.760    24292174.743
 -26103252.41449 -20340184.29248  20347116.450    20347115.845
 -21113439.75349 -16452023.04848  20970435.175    20970435.173
 95  3 13  6 53 30.0000000  0  6G23G26G22G16G 6G17
 -11054795.79249  -8614124.67847  21429678.802    21429678.569
 -15623092.53249 -12173835.69747  22129853.179    22129852.606
  -1604021.49748  -1249886.42346  23778835.681    23778834.807
  -2874285.40848  -2239686.93545  24311347.365    24311347.745
 -26071211.02649 -20315216.98948  20353213.633    20353212.962
 -21136692.58249 -16470142.13148  20966010.132    20966010.271
 95  3 13  6 54  0.0000000  0  6G23G26G22G16G 6G17
 -11112157.96049  -8658822.45948  21418763.037    21418762.842
 -15646134.13549 -12191790.19747  22125468.321    22125467.022
  -1635453.66648  -1274379.03246  23772854.085    23772854.362
  -2773511.65148  -2161161.93346  24330523.876    24330523.737
 -26038703.04649 -20289886.10148  20359399.781    20359399.077
 -21159799.12049 -16488147.21148  20961613.145    20961612.894
 95  3 13  6 54 30.0000000  0  6G23G26G22G16G 6G17
 -11169135.25649  -8703220.34248  21407920.744    21407920.493
 -15668619.68949 -12209311.39647  22121189.348    22121188.244
  -1666418.74848  -1298507.67246  23766961.186    23766960.293
  -2672687.30548  -2082597.52045  24349710.027    24349711.301
 -26005698.19249 -20264168.04148  20365680.407    20365679.843
 -21182736.51749 -16506020.50148  20957248.509    20957248.398
 95  3 13  6 55  0.0000000  0  6G23G26G22G16G 6G17
 -11225731.64349  -8747321.41248  21397150.883    21397150.661
 -15690558.80449 -12226406.80047  22117014.352    22117013.652
  -1696917.58348  -1322273.00046  23761158.248    23761156.587
  -2571828.91148  -2004006.59845  24368902.219    24368901.371
 -25972207.54149 -20238071.43948  20372053.449    20372052.886
 -21205503.54549 -16523761.03848  20952915.759    20952915.787
 95  3 13  6 55 30.0000000  0  6G23G26G22G16G 6G17
 -11281912.46749  -8791098.66648  21386460.141    21386460.109
 -15711930.82749 -12243060.30447  22112947.414    22112947.055
  -1726916.07548  -1345648.44846  23755449.633    23755448.891
  -2470910.96148  -1925369.24145  24388105.950    24388106.452
 -25938200.82549 -20211572.71848  20378524.870    20378524.068
 -21228080.14949 -16541353.18848  20948619.691    20948619.556
 95  3 13  6 56  0.0000000  0  6G23G26G22G16G 6G17
 -11337709.20649  -8834576.63348  21375842.281    21375842.081
 -15732780.37249 -12259306.69447  22108980.042    22108978.920
  -1756415.09848  -1368634.72646  23749835.613    23749836.616
  -2369957.29248  -1846704.07645  24407317.449    24407315.438
 -25903697.43549 -20184686.96748  20385090.581    20385090.013
 -21250505.22849 -16558827.26248  20944352.361    20944352.277
 95  3 13  6 56 30.0000000  0  6G23G26G22G16G 6G17
 -11393113.36049  -8877748.69248  21365299.050    21365298.730
 -15753122.51949 -12275157.69947  22105109.001    22105107.930
  -1785411.42448  -1391229.23146  23744317.539    23744317.596
  -2268961.81648  -1768006.29845  24426536.263    24426535.931
 -25868695.52649 -20157412.75148  20391751.239    20391750.646
 -21272771.23449 -16576177.38848  20940115.281    20940114.999
 95  3 13  6 57  0.0000000  0  6G23G26G22G16G 6G17
 -11448116.26149  -8920608.08448  21354832.313    21354832.083
 -15772963.26849 -12290618.00947  22101333.514    22101332.522
  -1813913.50848  -1413438.65246  23738893.846    23738891.735
  -2167931.67148  -1689281.53345  24445762.118    24445760.689
 -25833206.88749 -20129759.27248  20398504.522    20398503.965
 -21294860.75749 -16593389.99948  20935911.716    20935911.446
 95  3 13  6 57 30.0000000  0  6G23G26G22G16G 6G17
 -11502733.05149  -8963166.60848  21344439.009    21344439.042
 -15792300.91849 -12305686.29847  22097653.846    22097652.285
  -1841927.43048  -1435267.71446  23733563.204    23733562.772
  -2066877.74648  -1610538.22945  24464991.969    24464992.001
 -25797237.97849 -20101731.57348  20405349.222    20405348.584
 -21316780.41649 -16610470.24348  20931740.651    20931740.359
 95  3 13  6 58  0.0000000  0  6G23G26G22G16G 6G17
 -11556965.90549  -9005425.96248  21334118.805    21334119.019
 -15811133.21549 -12320360.80647  22094070.017    22094068.799
  -1869449.52148  -1456713.49446  23728326.204    23728326.205
  -1965797.19748  -1531774.14745  24484227.185    24484226.837
 -25760797.79049 -20073336.63248  20412283.399    20412282.855
 -21338514.37249 -16627405.78548  20927604.769    20927604.338
 95  3 13  6 58 30.0000000  0  6G23G26G22G16G 6G17
 -11610774.40149  -9047354.64548  21323879.397    21323879.624
 -15829420.78749 -12334610.84947  22090589.701    22090588.456
  -1896473.09148  -1477770.82646  23723183.665    23723184.730
  -1864650.41348  -1452958.46545  24503475.266    24503475.741
 -25723862.48849 -20044555.88848  20419311.971    20419311.200
 -21360020.56649 -16644163.85348  20923512.370    20923512.011
 95  3 13  6 59  0.0000000  0  6G23G26G22G16G 6G17
 -11664159.05049  -9088953.06248  21313720.852    21313720.985
 -15847149.48149 -12348425.40147  22087216.003    22087215.275
  -1922977.22748  -1498423.41646  23718140.068    23718139.798
  -1763447.37748  -1374098.92145  24522733.536    24522731.457
 -25686436.91549 -20015393.11548  20426433.861    20426433.287
 -21381315.58949 -16660757.37148  20919459.861    20919459.551
 95  3 13  6 59 30.0000000  0  6G23G26G22G16G 6G17
 -11717150.35649  -9130244.97648  21303636.994    21303636.911
 -15864335.06249 -12361816.75347  22083945.813    22083945.383
  -1948962.98448  -1518672.06546  23713195.316    23713194.407
  -1662205.47848  -1295209.13645  24541999.385    24541999.228
 -25648532.33149 -19985857.08048  20433646.740    20433646.130
 -21402443.47549 -16677220.65348  20915439.336    20915439.113
 95  3 13  7  0  0.0000000  0  6G23G26G22G16G 6G17
 -11769716.93549  -9171205.93648  21293633.730    21293633.864
 -15880957.66849 -12374769.42847  22080782.612    22080781.509
  -1974413.48148  -1538503.65046  23708351.769    23708352.107
  -1560885.22948  -1216258.30445  24561280.070    24561279.120
 -25610117.79249 -19955923.67548  20440956.981    20440956.241
 -21423379.70949 -16693534.59748  20911455.361    20911455.094
 95  3 13  7  0 30.0000000  0  6G23G26G22G16G 6G17
 -11821892.20149  -9211861.97048  21283705.135    21283705.176
 -15897035.27349 -12387297.41347  22077723.118    22077722.236
  -1999356.59048  -1557939.82346  23703605.492    23703607.000
  -1459523.91648  -1137275.45245  24580568.312    24580565.620
 -25571214.56149 -19925609.48048  20448360.078    20448359.246
 -21444166.93249 -16709732.43048  20907499.610    20907499.462
 95  3 13  7  1  0.0000000  0  6G23G26G22G16G 6G17
 -11873683.41749  -9252218.74748  21273849.544    21273849.409
 -15912563.50549 -12399397.33247  22074768.390    22074767.066
  -2023776.03548  -1576967.97946  23698959.101    23698958.113
  -1358125.57948  -1058263.76645  24599863.799    24599863.219
 -25531814.44549 -19894908.10648  20455857.735    20455856.882
 -21464799.26149 -16725809.56948  20903573.411    20903573.302
 95  3 13  7  1 30.0000000  0  6G23G26G22G16G 6G17
 -11925101.67049  -9292284.90548  21264064.917    21264064.787
 -15927561.09749 -12411083.76847  22071914.480    22071913.379
  -2047719.15748  -1595624.96346  23694402.742    23694402.234
  -1256706.67848   -979236.05145  24619162.850    24619161.936
 -25491926.60849 -19863826.68948  20463448.072    20463447.094
 -21485279.36049 -16741768.08448  20899676.190    20899676.010
 95  3 13  7  2  0.0000000  0  6G23G26G22G16G 6G17
 -11976137.23749  -9332052.86848  21254353.151    21254353.050
 -15942025.49549 -12422354.71847  22069161.629    22069161.174
  -2071206.45248  -1613926.75446  23689933.020    23689933.378
  -1155292.37048   -900211.92445  24638461.648    24638460.447
 -25451557.85449 -19832370.52948  20471130.074    20471129.119
 -21505607.24049 -16757607.98648  20895808.105    20895807.755
 95  3 13  7  2 30.0000000  0  6G23G26G22G16G 6G17
 -12026759.52549  -9371498.79848  21244720.158    21244720.011
 -15955931.56449 -12433190.60847  22066515.524    22066514.777
  -2094204.35648  -1631847.20446  23685556.949    23685555.696
  -1053874.00048   -821184.61845  24657760.846    24657759.873
 -25410677.95749 -19800516.07548  20478909.188    20478908.428
 -21525755.01249 -16773307.55048  20891974.098    20891973.682
 95  3 13  7  3  0.0000000  0  6G23G26G22G16G 6G17
 -12076958.39249  -9410614.78648  21235167.618    21235167.408
 -15969274.55849 -12443587.73247  22063976.459    22063975.789
  -2116700.11248  -1649376.36446  23681275.675    23681275.303
   -952443.29748   -742147.73445  24677062.462    24677062.174
 -25369277.60649 -19768256.07548  20486787.424    20486786.564
 -21545717.21049 -16788862.50848  20888175.539    20888175.183
 95  3 13  7  3 30.0000000  0  6G23G26G22G16G 6G17
 -12126734.23449  -9449401.14948  21225695.570    21225695.292
 -15982061.52549 -12453551.59347  22061543.458    22061542.197
  -2138710.42248  -1666527.26346  23677087.589    23677087.682
   -851022.40948   -663118.50145  24696362.110    24696361.744
 -25327371.89749 -19735602.28348  20494761.816    20494761.255
 -21565516.10749 -16804290.21648  20884407.720    20884407.697
 95  3 13  7  4  0.0000000  0  6G23G26G22G16G 6G17
 -12176103.14149  -9487870.41748  21216300.933    21216300.741
 -15994296.47049 -12463085.30847  22059215.159    22059214.265
  -2160211.79448  -1683281.60346  23672996.099    23672995.864
   -749605.46948   -584092.32645  24715660.877    24715660.969
 -25284952.36249 -19702548.10848  20502833.830    20502833.096
 -21585151.09349 -16819590.20448  20880671.204    20880671.067
 95  3 13  7  4 30.0000000  0  6G23G26G22G16G 6G17
 -12225100.12749  -9526049.87448  21206977.112    21206977.193
 -16005990.45849 -12472197.49647  22056989.536    22056988.824
  -2181194.68748  -1699631.92746  23669003.137    23669002.781
   -648184.39248   -505062.91045  24734960.863    24734962.780
 -25242035.84249 -19669106.67648  20511000.666    20510999.991
 -21604630.98249 -16834769.33848  20876964.364    20876964.013
 95  3 13  7  5  0.0000000  0  6G23G26G22G16G 6G17
 -12273734.96249  -9563947.13748  21197722.122    21197722.137
 -16017137.16349 -12480883.23547  22054868.681    22054867.922
  -2201656.25048  -1715576.00746  23665110.004    23665109.438
   -546757.90548   -426029.29245  24754261.183    24754263.036
 -25198636.30149 -19635288.86248  20519259.351    20519258.584
 -21623956.76349 -16849828.38848  20873286.884    20873286.548
 95  3 13  7  5 30.0000000  0  6G23G26G22G16G 6G17
 -12322014.25049  -9601567.35048  21188534.789    21188534.889
 -16027743.21549 -12489147.68647  22052850.569    22052849.515
  -2221605.26248  -1731120.68546  23661313.316    23661312.756
   -445326.25548   -346991.64645  24773562.889    24773563.611
 -25154760.32149 -19601099.80348  20527608.829    20527607.922
 -21643116.96149 -16864758.41148  20869640.775    20869640.602
 95  3 13  7  6  0.0000000  0  6G23G26G22G16G 6G17
 -12369945.76649  -9638916.57448  21179413.694    21179413.660
 -16037811.43049 -12496993.04347  22050934.346    22050933.080
  -2241035.70348  -1746261.31046  23657615.512    23657616.740
   -343870.89848   -267935.49845  24792868.753    24792870.793
 -25110408.46349 -19566539.92748  20536048.800    20536047.909
 -21662100.32349 -16879550.64048  20866028.500    20866028.201
 95  3 13  7  6 30.0000000  0  7G23G26G22G21G16G 6G17
 -12417490.58549  -9675964.47748  21170366.325    21170366.331
 -16047318.80349 -12504401.38147  22049125.265    22049123.766
  -2259950.20748  -1761000.46046  23654016.640    23654015.611
        -0.23858         0.61455  24201658.004    24201656.724
   -242389.12248   -188858.78345  24812178.690    24812177.083
 -25065578.54749 -19531607.53848  20544579.571    20544578.543
 -21680894.82849 -16894195.70748  20862451.908    20862451.480
 95  3 13  7  7  0.0000000  0  6G23G26G22G21G 6G17
 -12464625.47649  -9712692.95848  21161396.828    21161396.744
 -16056275.63349 -12511380.71947  22047420.702    22047419.545
  -2278382.07948  -1775363.39546  23650508.938    23650507.101
    -90240.54948    -70316.49546  24184486.108    24184484.911
 -25020275.72149 -19496306.63648  20553200.304    20553199.532
 -21699504.55349 -16908696.78848  20858910.485    20858910.432
 95  3 13  7  7 30.0000000  0  7G23G26G22G21G20G 6G17
 -12511290.48349  -9749055.29148  21152516.792    21152516.760
 -16064628.41849 -12517889.37247  22045831.128    22045830.068
  -2296284.36848  -1789313.24446  23647101.806    23647100.603
   -180259.96548   -140461.51546  24167356.227    24167355.457
        -0.55758        -0.40755  24364463.703    24364465.640
 -24974435.47749 -19460586.97048  20561923.218    20561922.528
 -21717874.73849 -16923011.21848  20855414.763    20855414.654
 95  3 13  7  8  0.0000000  0  7G23G26G21G22G20G 6G17
 -12557512.59949  -9785072.51448  21143721.216    21143721.057
 -16072412.08349 -12523954.55247  22044350.040    22044349.110
   -270086.31048   -210456.04946  24150262.903    24150263.407
  -2313693.13848  -1802878.53446  23643789.210    23643789.452
    100150.72048     78039.55345  24383521.535    24383523.578
 -24928094.25449 -19424476.93348  20570741.694    20570740.708
 -21736052.71349 -16937175.87448  20851955.583    20851955.220
 95  3 13  7  8 30.0000000  0  7G23G26G22G21G20G 6G17
 -12603337.69149  -9820780.36848  21135000.971    21135000.757
 -16079682.02649 -12529619.43747  22042966.479    22042965.398
  -2330659.41448  -1816099.02346  23640560.609    23640560.416
   -359767.60348   -280337.58746  24133197.101    24133198.013
    200155.80148    155965.58745  24402551.845    24402553.227
 -24881310.64249 -19388022.17548  20579644.380    20579643.488
 -21754096.26249 -16951235.78648  20848522.121    20848521.867
 95  3 13  7  9  0.0000000  0  7G23G26G22G21G20G 6G17
 -12648752.70949  -9856168.68248  21126358.855    21126358.556
 -16086421.05049 -12534870.62047  22041684.156    22041683.366
  -2347142.51348  -1828943.00646  23637424.155    23637423.366
   -449261.11148   -350072.76746  24116166.815    24116167.617
    300034.88348    233793.42245  24421558.589    24421560.210
 -24834058.37649 -19351202.24148  20588636.136    20588635.250
 -21771976.76049 -16965168.64248  20845119.663    20845119.345
 95  3 13  7  9 30.0000000  0  7G23G26G22G21G20G 6G17
 -12693748.96949  -9891230.69148  21117796.204    21117796.035
 -16092599.10049 -12539684.67047  22040508.602    22040507.434
  -2363102.55248  -1841379.41446  23634387.027    23634387.984
   -538545.04448   -419644.68846  24099176.932    24099177.419
    399829.04448    311555.11645  24440548.690    24440548.707
 -24786312.75949 -19313997.87148  20597721.896    20597721.154
 -21789667.15649 -16978953.36748  20841753.149    20841752.927
 95  3 13  7 10  0.0000000  0  7G23G26G22G21G20G 6G17
 -12738328.06049  -9925967.63348  21109313.016    21109312.759
 -16098214.44949 -12544060.26147  22039440.071    22039438.813
  -2378531.84448  -1853402.24546  23631451.219    23631450.109
   -627621.18348   -489054.65946  24082226.444    24082226.363
    499548.58148    389258.62845  24459525.053    24459523.555
 -24738077.12949 -19276411.67348  20606900.827    20606900.337
 -21807172.06649 -16992593.55548  20838422.076    20838421.740
 95  3 13  7 10 30.0000000  0  7G23G26G21G22G20G 6G17
 -12782491.39249  -9960380.60948  21100909.048    21100908.687
 -16103246.42149 -12547981.26647  22038482.553    22038481.227
   -716503.52948   -558313.64146  24065312.988    24065314.757
  -2393422.41848  -1865005.31046  23628617.407    23628617.701
    599201.77748    466910.49645  24478488.084    24478490.097
 -24689349.39749 -19238442.02148  20616173.394    20616172.927
 -21824482.75649 -17006082.40848  20835127.690    20835127.725
 95  3 13  7 11  0.0000000  0  7G23G26G22G21G20G 6G17
 -12826257.93549  -9994484.40048  21092580.525    21092580.069
 -16107693.34249 -12551446.39547  22037636.123    22037635.445
  -2407786.75848  -1876198.32846  23625883.962    23625883.736
   -805205.32248   -627431.90946  24048433.530    24048434.442
    698795.65548    544516.06345  24497439.989    24497441.746
 -24640126.71649 -19200086.69948  20625540.178    20625539.610
 -21841611.97649 -17019429.85148  20831868.279    20831868.205
 95  3 13  7 11 30.0000000  0  7G23G26G22G21G20G 6G17
 -12869648.72649 -10028295.39648  21084323.451    21084323.163
 -16111561.83349 -12554460.79247  22036899.886    22036899.391
  -2421644.41148  -1886996.51146  23623246.853    23623247.350
   -893747.16348   -696425.56646  24031584.420    24031585.649
    798323.09648    622069.91445  24516379.688    24516377.695
 -24590415.42549 -19161350.63448  20634999.945    20634999.267
 -21858588.74349 -17032658.49848  20828637.956    20828637.573
 95  3 13  7 12  0.0000000  0  7G23G26G22G21G20G 6G17
 -12912653.50249 -10061805.60048  21076139.905    21076139.658
 -16114852.75749 -12557025.13947  22036273.764    22036272.934
  -2434997.33948  -1897401.41246  23620706.082    23620707.112
   -982124.56448   -765291.07046  24014766.468    24014766.671
    897766.53548    699558.27945  24535303.159    24535301.918
 -24540209.49349 -19122229.13648  20644553.826    20644553.252
 -21875419.19649 -17045773.13148  20825435.406    20825435.191
 95  3 13  7 12 30.0000000  0  7G23G26G22G21G20G 6G17
 -12955272.91549 -10095015.51948  21068029.867    21068029.633
 -16117581.21349 -12559151.20647  22035754.425    22035753.279
  -2447864.99848  -1907428.16946  23618257.561    23618256.920
  -1070346.35648   -834035.33246  23997978.463    23997978.967
    997104.23048    776964.24845  24554206.372    24554204.448
 -24489518.48149 -19082729.65248  20654199.912    20654199.535
 -21892117.42749 -17058784.74048  20822257.698    20822257.351
 95  3 13  7 13  0.0000000  0  7G23G26G21G22G20G 6G17
 -12997518.55949 -10127934.19448  21059990.727    21059990.269
 -16119783.02749 -12560866.90447  22035335.425    22035334.784
  -1158415.20748   -902660.40046  23981219.717    23981219.793
  -2460263.22648  -1917089.13646  23615898.365    23615897.302
   1096309.41048    854266.98045  24573084.110    24573084.827
 -24438353.75349 -19042861.05048  20663936.301    20663935.833
 -21908688.35349 -17071697.14848  20819104.369    20819103.809
 95  3 13  7 13 30.0000000  0  7G23G26G21G22G20G 6G17
 -13039352.23049 -10160531.84848  21052030.032    21052029.772
 -16121439.78849 -12562157.87747  22035020.326    22035019.499
  -1246298.03448   -971140.51946  23964496.044    23964496.992
  -2472164.64348  -1926362.97046  23613633.758    23613633.067
   1195389.72048    931472.41845  24591938.631    24591937.951
 -24386704.01249 -19002614.50648  20673764.774    20673764.278
 -21925090.49949 -17084478.04048  20815983.161    20815982.807
 95  3 13  7 14  0.0000000  0  7G23G26G21G22G20G 6G17
 -13080775.34549 -10192809.59048  21044147.543    21044147.309
 -16122563.35349 -12563033.38147  22034806.207    22034805.549
  -1333999.95448  -1039479.66246  23947806.992    23947806.536
  -2483574.71048  -1935253.96046  23611462.396    23611460.871
   1294320.33748   1008561.19745  24610764.693    24610764.685
 -24334596.70949 -18962011.41848  20683680.567    20683680.106
 -21941312.48249 -17097118.54348  20812895.997    20812895.664
 95  3 13  7 14 30.0000000  0  7G23G26G21G22G20G 6G17
 -13121775.72649 -10224757.93248  21036345.428    21036345.164
 -16123130.58349 -12563475.36947  22034698.339    22034697.781
  -1421499.55748  -1107661.17746  23931156.108    23931157.676
  -2494463.05648  -1943738.39046  23609390.295    23609390.738
   1393139.51348   1085563.17945  24629569.468    24629568.871
 -24282025.13449 -18921046.56948  20693684.730    20693684.189
 -21957319.31249 -17109591.39848  20809849.954    20809849.769
 95  3 13  7 15  0.0000000  0  7G23G26G21G22G20G 6G17
 -13162358.68249 -10256381.00848  21028622.614    21028622.352
 -16123129.95149 -12563474.86947  22034698.624    22034698.113
  -1508792.68848  -1175681.78946  23914544.763    23914545.532
  -2504822.66148  -1951810.83846  23607418.884    23607419.560
   1491861.14148   1162489.09445  24648355.646    24648356.582
 -24228980.67949 -18879713.24348  20703778.806    20703778.375
 -21973095.45049 -17121884.49548  20806847.848    20806847.552
 95  3 13  7 15 30.0000000  0  7G23G26G21G22G20G 6G17
 -13202544.73649 -10287694.80748  21020975.440    21020975.214
 -16122564.88549 -12563034.54847  22034806.429    22034805.712
  -1595901.18248  -1243558.53246  23897968.690    23897969.847
  -2514685.89848  -1959496.47346  23605541.849    23605540.929
   1590473.31248   1239329.73545  24667121.032    24667119.918
 -24175483.63149 -18838027.24648  20713958.959    20713958.491
 -21988684.30649 -17134031.65348  20803881.394    20803881.338
 95  3 13  7 16  0.0000000  0  7G23G26G21G22G20G 6G17
 -13242336.54649 -10318701.40148  21013403.215    21013403.036
 -16121424.20049 -12562145.69247  22035023.472    22035022.482
  -1682827.45548  -1311293.28346  23881427.031    23881427.441
  -2524047.34548  -1966791.13746  23603760.474    23603760.170
   1688989.91848   1316095.91245  24685868.031    24685868.704
 -24121509.51049 -18795969.50448  20724229.760    20724229.389
 -22004091.79749 -17146037.48848  20800949.437    20800949.383
 95  3 13  7 16 30.0000000  0  7G23G26G21G22G20G 6G17
 -13281740.26349 -10349405.58848  21005904.932    21005904.866
 -16119719.99049 -12560817.73647  22035347.497    22035346.874
  -1769575.35548  -1378889.04246  23864919.405    23864920.383
  -2532926.51648  -1973709.99746  23602071.137    23602070.924
   1787407.79248   1392785.16745  24704596.443    24704596.727
 -24067050.01049 -18753533.54748  20734593.313    20734592.774
 -22019343.57949 -17157921.99148  20798047.159    20798047.023
 95  3 13  7 17  0.0000000  0  7G23G26G21G22G20G 6G17
 -13320740.20249 -10379795.14148  20998483.573    20998483.471
 -16117443.00549 -12559043.45647  22035780.623    22035779.866
  -1856123.01048  -1446328.79846  23848450.012    23848450.628
  -2541330.57848  -1980258.61746  23600471.613    23600471.763
   1885717.96048   1469390.46745  24723303.993    24723303.430
 -24012085.90649 -18710704.38248  20745052.797    20745052.058
 -22034434.40149 -17169681.06848  20795175.495    20795175.242
 95  3 13  7 17 30.0000000  0  7G23G26G21G22G20G 6G17
 -13359324.82449 -10409861.07248  20991141.207    20991141.020
 -16114586.08849 -12556817.28147  22036324.469    22036323.192
  -1942454.69348  -1513600.21546  23832021.629    23832021.346
  -2549240.48548  -1986422.18646  23598966.273    23598966.436
   1983928.61248   1545918.24245  24741992.789    24741993.231
 -23956625.08749 -18667488.16948  20755606.641    20755605.974
 -22049353.91749 -17181306.66348  20792336.493    20792336.112
 95  3 13  7 18  0.0000000  0  7G26G21G22G20G23G 6G17
 -16111164.54849 -12554151.14047  22036975.626    22036974.321
  -2028565.28648  -1580699.34346  23815635.344    23815635.234
  -2556636.94548  -1992185.67846  23597558.769    23597558.099
   2082030.74948   1622361.45745  24760660.994    24760659.800
 -13397498.73649 -10439606.97348  20983876.897    20983876.758
 -23900672.87549 -18623889.05948  20766253.978    20766253.107
 -22064082.12249 -17192783.18148  20789533.637    20789533.140
 95  3 13  7 18 30.0000000  0  7G26G21G22G20G23G 6G17
 -16107191.68749 -12551055.40147  22037731.464    22037730.322
  -2114472.04348  -1647639.67346  23799287.636    23799287.067
  -2563542.56048  -1997566.69346  23596244.107    23596244.611
   2180008.27248   1698707.57345  24779305.778    24779306.638
 -13435265.35049 -10469035.49648  20976689.927    20976690.126
 -23844257.58049 -18579929.10748  20776989.282    20776988.462
 -22078635.70849 -17204123.63148  20786764.367    20786764.152
 95  3 13  7 19  0.0000000  0  7G26G21G22G20G23G 6G17
 -16102657.47549 -12547522.24847  22038594.345    22038593.299
  -2200178.81048  -1714424.14546  23782978.220    23782978.597
  -2569949.22048  -2002558.91946  23595025.610    23595027.292
   2277860.28948   1774955.91645  24797926.145    24797926.863
 -13472630.48249 -10498151.17248  20969579.584    20969579.640
 -23787381.45249 -18535610.06348  20787812.459    20787811.638
 -22093006.12349 -17215321.35248  20784029.825    20784029.580
 95  3 13  7 19 30.0000000  0  7G26G21G22G20G23G 6G17
 -16097554.58349 -12543545.96947  22039565.210    22039564.365
  -2285695.99148  -1781060.90546  23766704.707    23766705.592
  -2575836.79448  -2007146.63746  23593905.721    23593905.165
   2375590.74748   1851109.48945  24816523.797    24816524.804
 -13509600.39449 -10526958.88448  20962544.527    20962544.496
 -23730042.65149 -18490930.49348  20798723.506    20798722.917
 -22107206.09049 -17226386.25948  20781327.687    20781327.156
 95  3 13  7 20  0.0000000  0  7G26G21G22G20G23G 6G17
 -16091871.63449 -12539117.69147  22040646.652    22040645.549
  -2371024.54948  -1847550.68846  23750467.210    23750468.348
  -2581210.65348  -2011334.06946  23592882.555    23592881.948
   2473193.70248   1927163.74545  24835096.469    24835094.444
 -13546166.38149 -10555451.85048  20955586.388    20955586.026
 -23672216.23749 -18445870.95448  20809727.480    20809726.993
 -22121246.24149 -17237326.63048  20778655.806    20778655.282
 95  3 13  7 20 30.0000000  0  7G26G21G22G20G23G 6G17
 -16085585.85749 -12534219.67547  22041842.832    22041842.020
  -2456159.48448  -1913889.59346  23734266.635    23734266.955
  -2586080.29348  -2015128.61246  23591956.297    23591955.869
   2570671.54848   2003120.49745  24853645.478    24853644.452
 -13582315.43449 -10583619.93448  20948707.611    20948707.327
 -23613897.79749 -18400428.00848  20820825.282    20820824.506
 -22135133.22449 -17248147.65048  20776013.282    20776012.969
 95  3 13  7 21  0.0000000  0  7G26G21G22G20G23G 6G17
 -16078722.01549 -12528871.21447  22043148.952    22043148.089
  -2541108.96548  -1980083.98246  23718101.397    23718101.903
  -2590460.07048  -2018541.45646  23591123.054    23591123.182
   2668001.83248   2078962.25545  24872167.017    24872170.183
 -13618083.87449 -10611491.43848  20941900.907    20941900.729
 -23555118.81949 -18354626.22748  20832010.573    20832009.772
 -22148881.19449 -17258860.35648  20773397.012    20773396.874
 95  3 13  7 21 30.0000000  0  7G26G21G22G20G23G 6G17
 -16071268.86949 -12523063.56547  22044567.381    22044566.181
  -2625859.61448  -2046123.44246  23701973.809    23701976.342
  -2594340.69648  -2021565.33546  23590384.266    23590383.030
   2765202.43248   2154702.94845  24890663.683    24890666.035
 -13653445.73049 -10639046.12448  20935171.647    20935171.491
 -23495869.60849 -18308458.02748  20843285.436    20843284.839
 -22162475.10549 -17269453.01248  20770810.106    20770809.932
 95  3 13  7 22  0.0000000  0  7G26G21G22G20G23G 6G17
 -16063264.34849 -12516826.26647  22046090.605    22046089.569
  -2710442.94848  -2112032.51746  23685878.066    23685879.042
  -2597774.10548  -2024240.73546  23589730.864    23589730.349
   2862238.93648   2230315.80845  24909129.518    24909130.894
 -13688427.12449 -10666304.34748  20928514.905    20928514.607
 -23436185.78749 -18261951.16148  20854642.727    20854642.072
 -22175923.61049 -17279932.36848  20768251.023    20768250.741
 95  3 13  7 22 30.0000000  0  7G26G21G22G20G23G 6G17
 -16054711.58849 -12510161.77047  22047717.994    22047716.497
  -2794842.50248  -2177798.39546  23669817.276    23669816.448
  -2600754.64948  -2026563.25746  23589163.470    23589164.149
   2959117.20448   2305805.36445  24927564.748    24927567.223
 -13723035.79749 -10693272.13348  20921929.205    20921928.857
 -23376080.04649 -18215115.53648  20866080.442    20866079.915
 -22189197.38949 -17290275.57048  20765724.963    20765724.765
 95  3 13  7 23  0.0000000  0  7G26G21G22G20G23G 6G17
 -16045604.48149 -12503065.32147  22049450.998    22049450.199
  -2879042.28348  -2243408.60246  23653794.550    23653795.038
  -2603254.63648  -2028511.29446  23588688.347    23588687.406
   3055856.30748   2381186.46745  24945973.424    24945976.525
 -13757256.01249 -10719937.22448  20915417.372    20915416.790
 -23315533.89149 -18167936.74348  20877602.124    20877601.405
 -22202278.37949 -17300468.55248  20763235.740    20763235.508
 95  3 13  7 23 30.0000000  0  7G26G21G22G20G23G 6G17
 -16035914.87949 -12495514.97347  22051295.119    22051294.558
  -2963022.72648  -2308847.89246  23637813.713    23637813.960
  -2605241.54848  -2030059.54646  23588310.439    23588309.602
   3152460.94248   2456462.78445  24964357.134    24964356.744
 -13791052.12649 -10746271.85148  20908986.085    20908985.863
 -23254508.36949 -18120384.40748  20889214.701    20889214.132
 -22215139.11049 -17310489.90648  20760788.550    20760788.198
 95  3 13  7 24  0.0000000  0  7G26G21G22G20G23G 6G17
 -16025660.12049 -12487524.24347  22053246.516    22053245.740
  -3046785.11948  -2374117.27746  23621874.255    23621875.004
  -2606728.45748  -2031218.17846  23588026.601    23588027.667
   3248893.46748   2531604.98345  24982707.872    24982709.957
 -13824447.36149 -10772294.10848  20902631.097    20902630.748
 -23193022.78149 -18072473.57047  20900915.000    20900914.426
 -22227802.89549 -17320357.79248  20758378.807    20758378.385
 95  3 13  7 24 30.0000000  0  7G26G21G22G20G23G 6G17
 -16014854.28349 -12479104.11047  22055302.626    22055301.790
  -3130346.91148  -2439230.36646  23605973.337    23605974.073
  -2607712.51948  -2031984.99746  23587839.852    23587840.200
   3345133.40348   2606597.11445  25001022.180    25001023.718
 -13857453.68649 -10798013.31948  20896350.231    20896349.996
 -23131096.38849 -18024219.24447  20912699.258    20912698.702
 -22240305.89849 -17330100.39248  20755999.437    20755999.060
 95  3 13  7 25  0.0000000  0  7G26G21G22G20G23G 6G17
 -16003485.72749 -12470245.49147  22057465.831    22057465.110
  -3213714.53848  -2504192.14646  23590109.149    23590109.668
  -2608181.05548  -2032350.11446  23587750.512    23587749.867
   3441182.92448   2681440.91145  25019299.736    25019301.616
 -13890047.83849 -10823411.35848  20890147.924    20890147.709
 -23068707.16749 -17975604.27647  20924571.648    20924571.111
 -22252655.71449 -17339723.62548  20753649.436    20753648.794
 95  3 13  7 25 30.0000000  0  7G26G21G22G20G23G 6G17
 -15991518.13849 -12460920.08447  22059743.407    22059742.666
  -3296860.06148  -2568980.86346  23574287.031    23574288.466
  -2608120.45648  -2032302.92046  23587761.635    23587761.997
   3537060.99448   2756151.06545  25037544.713    25037547.036
 -13922216.52149 -10848477.86248  20884026.381    20884026.123
 -23005825.95149 -17926605.93447  20936537.556    20936537.035
 -22264810.77549 -17349195.10648  20751336.469    20751336.038
 95  3 13  7 26  0.0000000  0  6G26G21G22G23G 6G17
 -15978971.43449 -12451143.43147  22062130.682    22062129.804
  -3379799.00948  -2633608.60546  23558504.164    23558505.062
  -2607553.36148  -2031861.02346  23587869.849    23587869.178
 -13953986.74449 -10873233.87248  20877980.674    20877980.479
 -22942470.91149 -17877238.38347  20948593.683    20948593.074
 -22276785.64449 -17358526.18048  20749057.656    20749057.479
 95  3 13  7 26 30.0000000  0  6G26G21G22G23G 6G17
 -15965883.11249 -12440944.73547  22064621.392    22064621.247
  -3462565.52848  -2698101.98846  23542754.090    23542755.591
  -2606517.47648  -2031053.85346  23588067.324    23588067.222
 -13985386.98749 -10897701.58548  20872005.392    20872005.112
 -22878668.96549 -17827522.60447  20960734.748    20960734.318
 -22288590.61749 -17367724.86648  20746811.333    20746811.067
 95  3 13  7 27  0.0000000  0  6G26G21G22G23G 6G17
 -15952255.90249 -12430326.12747  22067214.564    22067213.573
  -3545132.64948  -2762440.00246  23527041.896    23527042.543
  -2605024.60148  -2029890.58346  23588351.395    23588351.279
 -14016419.03749 -10921882.39648  20866100.317    20866099.845
 -22814415.19149 -17777454.74447  20972961.884    20972961.411
 -22300204.94549 -17376775.00048  20744601.067    20744600.833
 95  3 13  7 27 30.0000000  0  6G 6G26G21G22G23G17
 -22749699.15949 -17727026.67047  20985277.015    20985276.203
 -15938063.96749 -12419267.47347  22069915.395    22069914.243
  -3627456.76948  -2826588.65846  23511376.173    23511376.093
  -2603047.50148  -2028349.99946  23588727.365    23588726.985
 -14047061.75649 -10945759.83548  20860269.153    20860268.680
 -22311598.62749 -17385653.20048  20742432.808    20742432.471
 95  3 13  7 28  0.0000000  0  6G 6G26G21G22G23G17
 -22684528.71249 -17676244.52447  20997678.506    20997677.724
 -15923312.27249 -12407772.64147  22072722.637    22072721.572
  -3709526.21748  -2890538.89246  23495758.792    23495759.694
  -2600575.03348  -2026423.42246  23589197.935    23589196.965
 -14077286.45249 -10969311.53948  20854517.554    20854517.313
 -22322789.41749 -17394373.30448  20740303.327    20740303.120
 95  3 13  7 28 30.0000000  0  6G 6G26G21G22G23G17
 -22618912.22049 -17625114.80447  21010164.875    21010164.530
 -15907996.73349 -12395838.44847  22075637.319    22075636.636
  -3791340.97448  -2954290.63846  23480189.968    23480189.902
  -2597619.41348  -2024120.37346  23589760.626    23589760.960
 -14107090.68049 -10992535.60748  20848845.819    20848845.556
 -22333793.64049 -17402948.03048  20738209.487    20738209.188
 95  3 13  7 29  0.0000000  0  6G 6G26G21G22G23G17
 -22552854.24849 -17573641.05447  21022735.090    21022734.712
 -15892102.49849 -12383453.32447  22078661.795    22078660.799
  -3872914.02348  -3017854.03746  23464667.383    23464667.762
  -2594176.44748  -2021437.55746  23590415.824    23590415.627
 -14136482.86049 -11015438.59948  20843252.632    20843252.370
 -22344633.93249 -17411395.02248  20736146.767    20736146.201
 95  3 13  7 29 30.0000000  0  6G 6G26G21G22G23G17
 -22486347.16349 -17521817.36147  21035391.103    21035390.519
 -15875617.58349 -12370607.94047  22081798.929    22081797.788
  -3954258.34248  -3081239.20446  23449188.084    23449188.041
  -2590233.18048  -2018364.91046  23591166.138    23591166.435
 -14165447.89249 -11038008.74848  20837740.851    20837740.588
 -22355312.03749 -17419715.63348  20734114.548    20734114.338
 95  3 13  7 30  0.0000000  0  6G 6G26G21G22G23G17
 -22419387.62049 -17469641.11647  21048133.200    21048132.780
 -15858558.40049 -12357315.06447  22085045.051    22085043.903
  -4035397.22348  -3144464.30346  23433747.978    23433748.521
  -2585820.46848  -2014926.45746  23592005.791    23592005.597
 -14194005.16949 -11060261.16248  20832306.644    20832306.481
 -22365836.72449 -17427916.69648  20732111.760    20732111.448
 95  3 13  7 30 30.0000000  0  6G 6G26G21G22G23G17
 -22351946.14349 -17417089.33647  21060966.874    21060966.585
 -15840913.68449 -12343565.92547  22088402.828    22088401.740
  -4116328.69148  -3207527.77646  23418347.121    23418346.930
  -2580927.66748  -2011113.89846  23592937.004    23592936.878
 -14222158.97449 -11082199.18248  20826949.093    20826948.879
 -22376176.95149 -17435974.02648  20730144.111    20730143.996
 95  3 13  7 31  0.0000000  0  6G 6G26G21G22G23G17
 -22284026.84449 -17364165.21747  21073891.450    21073891.097
 -15822699.49649 -12329373.04547  22091868.835    22091867.320
  -4197059.72548  -3270435.06646  23402984.494    23402984.748
  -2575544.25148  -2006919.04646  23593961.254    23593961.294
 -14249906.39549 -11103820.54448  20821668.965    20821668.572
 -22386323.74949 -17443880.62848  20728213.061    20728213.024
 95  3 13  7 31 30.0000000  0  6G 6G26G21G22G23G17
 -22215643.87649 -17310879.80747  21086904.318    21086903.860
 -15803939.28049 -12314754.68947  22095438.765    22095437.224
  -4277597.47948  -3333191.74146  23387658.802    23387658.320
  -2569684.40548  -2002352.93946  23595076.337    23595077.166
 -14277260.79349 -11125135.65248  20816463.598    20816463.180
 -22396275.54849 -17451635.28348  20726319.378    20726319.421
 95  3 13  7 32  0.0000000  0  6G 6G26G21G22G23G17
 -22146795.58049 -17257231.79847  21100005.847    21100005.338
 -15784619.19349 -12299700.06547  22099115.157    22099113.991
  -4357937.63648  -3395794.45846  23372370.331    23372370.362
  -2563338.46848  -1997408.06946  23596284.350    23596284.903
 -14304217.25949 -11146140.68448  20811333.862    20811333.637
 -22406025.49149 -17459232.64948  20724464.083    20724463.821
 95  3 13  7 32 30.0000000  0  6G 6G26G21G22G23G17
 -22077505.17649 -17203239.29247  21113191.423    21113190.790
 -15764733.33449 -12284204.58947  22102899.096    22102897.825
  -4438074.88548  -3458239.05046  23357120.549    23357120.938
  -2556488.20948  -1992070.22146  23597587.282    23597586.853
 -14330763.58649 -11166826.12648  20806282.280    20806282.028
 -22415569.50749 -17466669.55348  20722648.184    20722647.699
 95  3 13  7 33  0.0000000  0  6G 6G26G21G22G23G17
 -22007761.41749 -17148893.51747  21126463.292    21126462.693
 -15744251.58849 -12268244.78947  22106796.671    22106795.636
  -4517973.15348  -3520497.43146  23341916.126    23341916.086
  -2549109.27948  -1986320.41546  23598991.672    23598991.494
 -14356876.65449 -11187173.96348  20801313.107    20801312.775
 -22424889.00649 -17473931.50348  20720874.694    20720874.309
 95  3 13  7 33 30.0000000  0  6G 6G26G21G22G23G17
 -21937571.11649 -17094199.79047  21139820.052    21139819.525
 -15723159.97249 -12251809.76747  22110810.188    22110809.223
  -4597622.44148  -3582561.79646  23326759.688    23326759.696
  -2541215.27448  -1980169.26146  23600493.654    23600494.906
 -14382563.45949 -11207189.64848  20796425.180    20796424.798
 -22433988.10049 -17481021.71248  20719143.181    20719143.124
 95  3 13  7 34  0.0000000  0  6G 6G26G21G22G23G17
 -21866960.63549 -17039178.64647  21153256.529    21153256.295
 -15701470.59349 -12234908.94847  22114937.705    22114937.182
  -4677023.34748  -3644432.63446  23311650.288    23311650.855
  -2532835.01748  -1973639.21546  23602088.611    23602088.963
 -14407842.15549 -11226887.32448  20791614.535    20791614.156
 -22442899.39449 -17487965.58248  20717447.319    20717447.208
 95  3 13  7 34 30.0000000  0  6G 6G26G21G22G23G17
 -21795932.43649 -16983832.00247  21166772.662    21166772.303
 -15679203.93649 -12217558.30347  22119174.775    22119174.120
  -4756175.96848  -3706110.00046  23296587.943    23296589.141
  -2523994.85848  -1966750.79946  23603771.184    23603771.001
 -14432737.02349 -11246285.91848  20786877.345    20786877.060
 -22451640.24349 -17494776.63448  20715784.064    20715783.851
 95  3 13  7 35  0.0000000  0  6G 6G26G21G22G23G17
 -21724469.01849 -16928146.23447  21180371.540    21180371.255
 -15656356.15549 -12199754.83747  22123522.593    22123521.542
  -4835067.78648  -3767584.12146  23281575.234    23281576.327
  -2514701.47348  -1959509.20746  23605539.277    23605539.565
 -14457258.03049 -11265393.19248  20782211.155    20782210.962
 -22460210.18049 -17501454.50648  20714153.187    20714153.041
 95  3 13  7 35 30.0000000  0  6G 6G26G21G22G23G17
 -21652582.27049 -16872130.60447  21194051.356    21194051.125
 -15632934.69949 -12181504.34647  22127979.425    22127978.592
  -4913717.95748  -3828869.95746  23266608.565    23266609.864
  -2504974.63048  -1951929.86846  23607390.524    23607391.816
 -14481423.28749 -11284223.25848  20777612.654    20777612.500
 -22468626.59349 -17508012.74648  20712551.601    20712551.507
 95  3 13  7 36  0.0000000  0  6G 6G26G21G22G23G17
 -21580260.59549 -16815776.05647  21207813.890    21207813.466
 -15608952.65149 -12162817.03747  22132543.117    22132542.284
  -4992131.02448  -3889971.02346  23251686.811    23251687.441
  -2494810.62248  -1944009.89946  23609324.498    23609324.138
 -14505231.68549 -11302775.25148  20773082.058    20773081.976
 -22476891.36049 -17514452.82148  20710978.868    20710978.613
 95  3 13  7 36 30.0000000  0  6G 6G26G21G22G23G17
 -21507511.41949 -16759088.41347  21221657.512    21221657.116
 -15584433.44049 -12143711.15747  22137208.948    22137207.741
  -5070342.14948  -3950914.74646  23236803.759    23236804.443
  -2484206.51148  -1935746.97346  23611342.134    23611342.702
 -14528693.55949 -11321057.22748  20768617.306    20768617.088
 -22485000.19349 -17520771.38548  20709435.732    20709435.435
 95  3 13  7 37  0.0000000  0  6G 6G26G21G22G23G17
 -21434348.27749 -16702078.19547  21235580.015    21235579.939
 -15559381.85149 -12124190.43647  22141976.393    22141974.743
  -5148352.95248  -4011702.37546  23221958.986    23221960.120
  -2473143.20148  -1927126.24246  23613447.905    23613447.461
 -14551808.33849 -11339068.73748  20764218.797    20764218.632
 -22492937.00649 -17526955.90948  20707925.506    20707925.100
 95  3 13  7 37 30.0000000  0  6G 6G26G21G22G23G17
 -21360788.39349 -16644758.82447  21249578.053    21249577.571
 -15533815.92449 -12104268.93547  22146841.358    22146840.326
  -5226186.77648  -4072352.08946  23207147.712    23207148.196
  -2461630.76448  -1918155.54146  23615638.524    23615638.153
 -14574574.26849 -11356808.41748  20759886.565    20759886.399
 -22500718.56749 -17533019.45748  20706444.924    20706444.455
 95  3 13  7 38  0.0000000  0  6G 6G26G21G22G23G17
 -21286811.61249 -16587114.58247  21263655.367    21263654.924
 -15507725.62649 -12083938.82947  22151805.981    22151805.035
  -5303821.35748  -4132846.55846  23192374.256    23192374.154
  -2449640.72148  -1908812.65946  23617920.252    23617920.097
 -14596947.06849 -11374241.76448  20755629.183    20755629.095
 -22508307.07349 -17538932.57648  20705000.679    20705000.431
 95  3 13  7 38 30.0000000  0  6G 6G26G21G22G23G17
 -21212433.50149 -16529157.62547  21277809.177    21277808.659
 -15481117.04749 -12063204.88147  22156869.186    22156868.507
  -5381265.01048  -4193192.25746  23177637.348    23177637.247
  -2437178.19448  -1899101.61646  23620292.084    23620290.776
 -14618932.66149 -11391373.39148  20751445.492    20751445.273
 -22515691.35149 -17544686.55048  20703595.361    20703595.163
 95  3 13  7 39  0.0000000  0  6G 6G26G21G22G23G17
 -21137644.77149 -16470880.70447  21292040.956    21292040.488
 -15453973.48149 -12042054.05147  22162034.524    22162033.802
  -5458491.14248  -4253368.44246  23162941.651    23162942.438
  -2424250.86548  -1889028.40446  23622751.698    23622751.725
 -14640519.45649 -11408194.26348  20747337.705    20747337.284
 -22522871.97649 -17550281.83748  20702228.889    20702228.873
 95  3 13  7 39 30.0000000  0  6G 6G26G21G22G23G17
 -21062407.11449 -16412253.97147  21306358.198    21306357.450
 -15426260.08449 -12020459.19247  22167308.232    22167307.584
  -5535469.05949  -4313351.22246  23148293.319    23148293.427
  -2410847.88348  -1878584.54146  23625302.252    23625301.557
 -14661661.51349 -11424668.58948  20743314.461    20743314.234
 -22529833.46749 -17555706.37048  20700904.240    20700904.003
 95  3 13  7 40  0.0000000  0  6G 6G26G21G22G23G17
 -20986742.61149 -16353294.62347  21320756.901    21320756.272
 -15397996.24049 -11998435.40947  22172686.838    22172686.318
  -5612215.63549  -4373153.73146  23133689.213    23133689.623
  -2396984.88548  -1867782.22546  23627940.159    23627939.638
 -14682387.28549 -11440818.53648  20739370.567    20739370.155
 -22536597.29549 -17560976.87848  20699617.172    20699617.063
 95  3 13  7 40 30.0000000  0  6G 6G26G21G22G23G17
 -20910640.23649 -16293994.07347  21335238.808    21335238.196
 -15369153.58549 -11975960.60947  22178175.415    22178174.429
  -5688701.43049  -4432753.04646  23119134.368    23119134.574
  -2382652.14548  -1856613.89046  23630667.321    23630666.770
 -14702708.40449 -11456653.16648  20735503.597    20735503.195
 -22543164.51949 -17566094.18748  20698367.407    20698367.298
 95  3 13  7 41  0.0000000  0  6G 6G26G21G22G23G17
 -20834085.68849 -16234341.19547  21349806.504    21349806.295
 -15339713.89749 -11953020.58347  22183777.190    22183776.411
  -5764911.32149  -4492137.36346  23104632.013    23104632.490
  -2367853.22348  -1845082.28646  23633483.917    23633484.685
 -14722617.84249 -11472167.00748  20731714.909    20731714.584
 -22549550.77549 -17571070.48048  20697152.193    20697151.983
 95  3 13  7 41 30.0000000  0  6G 6G26G21G22G23G17
 -20757085.21449 -16174340.84247  21364459.046    21364458.774
 -15309674.10649 -11929612.94447  22189493.654    22189492.858
  -5840849.62349  -4551310.04146  23090181.419    23090181.689
  -2352573.10948  -1833175.71546  23636391.772    23636391.556
 -14742110.58049 -11487356.14848  20728005.534    20728005.029
 -22555750.22249 -17575901.21348  20695972.533    20695972.142
 95  3 13  7 42  0.0000000  0  6G 6G26G21G22G23G17
 -20679668.72549 -16114016.31947  21379190.935    21379190.771
 -15279046.13149 -11905746.98647  22195322.050    22195321.749
  -5916529.77649  -4610281.58046  23075779.927    23075780.314
  -2336824.39948  -1820903.99446  23639388.523    23639387.947
 -14761218.11149 -11502245.12548  20724369.529    20724368.998
 -22561767.15949 -17580589.73048  20694827.587    20694827.272
 95  3 13  7 42 30.0000000  0  6G 6G26G21G22G23G17
 -20601840.65949 -16053371.08147  21394001.102    21394000.794
 -15247844.33849 -11881433.89847  22201259.841    22201258.991
  -5991965.64149  -4669062.75246  23061424.808    23061425.323
  -2320635.34548  -1808289.16146  23642469.148    23642469.708
 -14779955.74249 -11516845.87048  20720803.843    20720803.598
 -22567604.29849 -17585138.14948  20693716.653    20693716.453
 95  3 13  7 43  0.0000000  0  6G 6G26G21G22G23G17
 -20523596.97649 -15992401.97947  21408890.444    21408890.207
 -15216081.58149 -11856683.70047  22207303.842    22207303.071
  -6067170.11849  -4727663.63346  23047113.793    23047114.106
  -2303998.14248  -1795325.12946  23645635.129    23645635.678
 -14798308.77049 -11531146.92848  20717311.339    20717311.066
 -22573248.01349 -17589535.84848  20692642.740    20692642.380
 95  3 13  7 43 30.0000000  0  6G 6G26G21G22G23G17
 -20444972.29449 -15931136.00147  21423852.234    21423852.026
 -15183794.26349 -11831524.74447  22213448.000    22213446.947
  -6142176.42649  -4786110.07346  23032840.499    23032841.103
  -2286919.61448  -1782017.19546  23648884.946    23648884.865
 -14816302.26149 -11545167.82448  20713887.293    20713886.995
 -22578702.82549 -17593786.35348  20691604.658    20691604.531
 95  3 13  7 44  0.0000000  0  6G 6G26G21G22G23G17
 -20365963.45249 -15869570.68647  21438887.063    21438886.693
 -15151003.29749 -11805973.34047  22219687.970    22219687.194
  -6216987.46349  -4844404.37446  23018604.384    23018604.668
  -2269416.93648  -1768378.77346  23652215.681    23652215.253
 -14833950.80449 -11558919.92848  20710528.953    20710528.654
 -22583967.04349 -17597888.34148  20690602.771    20690602.752
 95  3 13  7 44 30.0000000  0  6G 6G26G21G22G23G17
 -20286513.25549 -15807661.44047  21454006.012    21454005.901
 -15117667.93349 -11779997.73347  22226031.360    22226030.480
  -6291554.54649  -4902508.56446  23004414.636    23004415.559
  -2251438.74948  -1754369.81946  23655636.677    23655636.738
 -14851201.25749 -11572361.83248  20707246.204    20707245.839
 -22588989.67949 -17601802.08448  20689647.034    20689646.884
 95  3 13  7 45  0.0000000  0  6G 6G26G21G22G23G17
 -20206663.32549 -15745440.72647  21469200.930    21469200.961
 -15083819.39249 -11753622.25047  22232472.507    22232471.748
  -6365890.11748  -4960432.36746  22990268.949    22990268.995
  -2232997.75848  -1740000.23146  23659146.008    23659145.699
 -14868075.41549 -11585510.52348  20704035.225    20704035.000
 -22593801.37849 -17605551.46348  20688731.602    20688731.383
 95  3 13  7 45 30.0000000  0  6G 6G26G21G22G23G17
 -20126419.97149 -15682913.45147  21484470.859    21484470.874
 -15049447.14249 -11726838.68047  22239013.297    22239012.385
  -6439982.11049  -5018166.36746  22976169.653    22976170.433
  -2214103.62948  -1725277.56046  23662741.624    23662741.222
 -14884569.83149 -11598363.31148  20700896.440    20700896.167
 -22598395.60249 -17609131.37948  20687857.315    20687856.953
 95  3 13  7 46  0.0000000  0  6G 6G26G21G22G23G17
 -20045760.74249 -15620062.11347  21499819.740    21499819.600
 -15014520.58849 -11699623.18047  22245659.709    22245658.789
  -6513798.77049  -5075685.82746  22962123.114    22962123.361
  -2194757.06448  -1710202.34646  23666423.286    23666423.309
 -14900669.64849 -11610908.62148  20697832.673    20697832.401
 -22602764.91249 -17612536.03548  20687025.769    20687025.661
 95  3 13  7 46 30.0000000  0  7G 6G26G21G22G28G23G17
 -19964693.34949 -15556892.72447  21515246.344    21515246.153
 -14979016.23849 -11671957.43847  22252415.919    22252414.814
  -6587341.92849  -5132992.17946  22948128.188    22948128.738
  -2174955.52848  -1694772.59346  23670191.530    23670191.051
        -0.21017        -0.40317  24560523.068    24560521.423    24560522.570
 -14916370.19849 -11623142.81048  20694844.893    20694844.788
 -22606921.53549 -17615774.96248  20686234.915    20686234.593
 95  3 13  7 47  0.0000000  0  6G 6G26G21G22G23G17
 -19883240.84749 -15493423.26247  21530746.386    21530745.888
 -14942936.92749 -11643843.68547  22259281.566    22259280.721
  -6660624.51449  -5190095.48446  22934183.197    22934183.468
  -2154710.98348  -1678997.64546  23674043.582    23674043.623
 -14931680.63549 -11635073.01648  20691931.510    20691931.353
 -22610888.17649 -17618865.85448  20685480.250    20685479.930
 95  3 13  7 47 30.0000000  0  7G 6G26G21G22G28G23G17
 -19801384.95749 -15429639.47347  21546322.852    21546322.996
 -14906267.94449 -11615270.45247  22266259.477    22266258.945
  -6733656.40149  -5247003.43246  22920285.748    22920285.461
  -2134028.13348  -1662881.16346  23677979.394    23677979.438
        -0.45217        -0.32617  24520179.374    24520178.156    24520179.405
 -14946598.36849 -11646697.21948  20689092.679    20689092.469
 -22614659.73449 -17621804.72848  20684762.465    20684762.141
 95  3 13  7 48  0.0000000  0  7G 6G26G21G22G28G23G17
 -19719131.34649 -15365545.76347  21561975.277    21561975.011
 -14869029.11249 -11586253.18447  22273345.854    22273344.958
  -6806471.04249  -5303742.10346  22906429.414    22906429.538
  -2112922.05848  -1646434.88046  23681995.819    23681996.088
   -105862.248 7    -82490.051 7  24500034.738    24500033.161    24500034.545
 -14961139.10249 -11658027.65748  20686325.632    20686325.353
 -22618264.90249 -17624613.95348  20684076.219    20684075.978
 95  3 13  7 48 30.0000000  0  7G 6G26G21G22G28G23G17
 -19636483.56649 -15301144.90747  21577702.625    21577702.582
 -14831221.67649 -11556792.83947  22280540.117    22280539.718
  -6879072.86249  -5360314.93946  22892613.890    22892614.128
  -2091381.45948  -1629650.01146  23686094.894    23686094.749
   -211616.077 7   -164895.681 7  24479910.485    24479908.832    24479910.361
 -14975291.51049 -11669055.50448  20683632.585    20683632.429
 -22621690.08449 -17627282.92648  20683424.419    20683424.075
 95  3 13  7 49  0.0000000  0  7G 6G26G21G22G28G23G17
 -19553454.81849 -15236447.19447  21593502.564    21593501.890
 -14792880.69549 -11526916.74447  22287836.347    22287835.686
  -6951469.94149  -5416728.22946  22878837.036    22878838.050
  -2069425.85748  -1612541.76246  23690272.739    23690273.436
   -317270.396 7   -247223.743 7  24459804.541    24459803.747    24459804.769
 -14989076.03049 -11679796.68448  20681009.404    20681009.175
 -22624939.06349 -17629814.59548  20682806.248    20682806.063
 95  3 13  7 49 30.0000000  0  7G 6G26G21G22G28G23G17
 -19470037.64449 -15171446.81447  21609376.309    21609375.424
 -14754010.04349 -11496627.92047  22295233.175    22295232.204
  -7023657.39749  -5472978.17646  22865100.228    22865100.609
  -2047064.07748  -1595117.01346  23694528.117    23694528.332
   -422823.345 7   -329472.802 7  24439718.694    24439717.654    24439718.971
 -15002500.45749 -11690257.27348  20678454.889    20678454.680
 -22628008.33449 -17632206.23548  20682222.174    20682222.084
 95  3 13  7 50  0.0000000  0  7G 6G26G21G22G28G23G17
 -19386236.75549 -15106147.43747  21625323.070    21625322.516
 -14714610.99149 -11465927.35447  22302730.792    22302729.784
  -7095609.62849  -5529044.83646  22851408.105    22851408.952
  -2024283.11548  -1577365.61946  23698862.879    23698863.168
   -528267.474 7   -411637.101 7  24419653.266    24419652.255    24419653.645
 -15015559.19949 -11700432.90948  20675969.803    20675969.590
 -22630890.80349 -17634452.31948  20681673.632    20681673.457
 95  3 13  7 50 30.0000000  0  7G 6G26G21G22G28G23G17
 -19302044.90149 -15040543.40247  21641344.222    21641343.817
 -14674670.01749 -11434804.52047  22310331.352    22310329.673
  -7167272.40649  -5584885.93746  22837771.087    22837771.602
  -2001062.43048  -1559271.60846  23703281.902    23703281.580
   -633592.724 7   -493708.704 7  24399610.426    24399609.483    24399610.698
 -15028251.06449 -11710322.67048  20673554.762    20673554.441
 -22633559.80949 -17636532.06248  20681165.798    20681165.549
 95  3 13  7 51  0.0000000  0  7G 6G26G21G22G28G23G17
 -19217439.25349 -14974616.93147  21657444.192    21657443.756
 -14634180.44249 -11403254.19547  22318036.278    22318034.167
  -7238619.89449  -5640481.36846  22824194.207    22824194.709
  -1977377.29548  -1540815.67746  23707789.442    23707789.646
   -738790.195 7   -575680.801 7  24379592.693    24379591.071    24379592.429
 -15040563.47449 -11719916.75348  20671211.727    20671211.276
 -22635993.97049 -17638428.80848  20680702.553    20680702.192
 95  3 13  7 51 30.0000000  0  7G 6G26G21G22G28G23G17
 -19132483.08949 -14908417.34247  21673610.800    21673610.615
 -14593197.20149 -11371319.20047  22325835.215    22325833.478
  -7309721.81849  -5695885.44646  22810664.130    22810663.885
  -1953279.22448  -1522037.98546  23712375.229    23712374.638
   -843915.084 7   -657596.280 7  24359587.763    24359586.618    24359587.575
 -15052540.38649 -11729249.41148  20668932.574    20668932.215
 -22638251.35649 -17640187.80748  20680272.925    20680272.647
 95  3 13  7 52  0.0000000  0  7G 6G26G21G22G28G23G17
 -19047185.50749 -14841951.71547  21689842.292    21689842.173
 -14551726.86849 -11339004.64947  22333726.266    22333724.959
  -7380591.21949  -5751108.34246  22797178.095    22797178.549
  -1928760.56448  -1502932.53946  23717040.981    23717040.715
   -948961.907 8   -739450.948 7  24339598.241    24339596.575    24339598.081
 -15064176.61449 -11738316.59748  20666718.268    20666718.086
 -22640320.76349 -17641800.33348  20679879.116    20679878.830
 95  3 13  7 52 30.0000000  0  7G 6G26G21G22G28G23G17
 -18961535.77249 -14775211.67947  21706140.898    21706140.634
 -14509757.84849 -11306301.51947  22341712.635    22341711.433
  -7451243.11949  -5806161.75346  22783733.330    22783733.259
  -1903811.84448  -1483492.00346  23721788.327    23721788.670
  -1053909.215 7   -821228.092 7  24319627.275    24319626.030    24319627.150
 -15075461.65949 -11747110.13348  20664570.746    20664570.567
 -22642184.03849 -17643252.23848  20679524.786    20679524.200
 95  3 13  7 53  0.0000000  0  7G 6G21G26G22G28G23G17
 -18875524.32049 -14708189.79447  21722508.031    21722508.088
  -7521712.52049  -5861072.95346  22770323.408    22770323.965
 -14467274.14949 -11273197.33547  22349797.218    22349796.326
  -1878420.67948  -1463706.71246  23726620.035    23726620.365
  -1158736.085 8   -902911.350 8  24299679.604    24299678.243    24299679.400
 -15086367.63549 -11755608.29248  20662495.542    20662495.238
 -22643843.57349 -17644545.37748  20679208.880    20679208.403
 95  3 13  7 53 30.0000000  0  7G 6G21G26G22G28G23G17
 -18789137.89549 -14640875.71747  21738947.037    21738946.928
  -7591988.24949  -5915833.25247  22756950.360    22756950.789
 -14424250.57049 -11239672.46947  22357984.417    22357983.072
  -1852589.36048  -1443578.41346  23731535.604    23731535.326
  -1263421.708 8   -984484.568 8  24279758.271    24279757.152    24279758.162
 -15096883.65049 -11763802.58248  20660494.332    20660493.992
 -22645292.57249 -17645674.46448  20678933.122    20678932.759
 95  3 13  7 54  0.0000000  0  7G 6G21G26G22G28G23G17
 -18702365.38949 -14573260.79647  21755459.406    21755459.126
  -7662048.26649  -5970425.46447  22743618.462    22743618.333
 -14380681.28249 -11205722.36547  22366275.376    22366274.540
  -1826318.12948  -1423107.34246  23736534.885    23736535.129
  -1367960.241 8  -1065943.160 8  24259865.508    24259864.129    24259865.181
 -15107027.60149 -11771706.95348  20658563.811    20658563.530
 -22646537.87649 -17646644.83048  20678696.166    20678695.694
 95  3 13  7 54 30.0000000  0  7G 6G26G21G22G28G23G17
 -18615211.88549 -14505348.98647  21772044.247    21772043.974
 -14336584.57749 -11171361.29347  22374666.056    22374665.336
  -7731884.64749  -6024843.40547  22730328.954    22730329.586
  -1799634.38148  -1402314.81946  23741612.510    23741612.863
  -1472371.443 8  -1147302.550 8  24239996.758    24239995.377    24239996.490
 -15116820.96249 -11779338.13548  20656700.253    20656699.860
 -22647609.43749 -17647479.80948  20678492.204    20678491.898
 95  3 13  7 55  0.0000000  0  7G 6G26G21G22G28G23G17
 -18527669.78749 -14437134.37947  21788703.108    21788702.609
 -14291949.73249 -11136580.89747  22383159.947    22383159.559
  -7801448.74349  -6079049.17847  22717091.300    22717092.064
  -1772539.66748  -1381202.07246  23746768.384    23746768.232
  -1576640.221 8  -1228550.950 8  24220155.088    24220153.663    24220154.824
 -15126241.99349 -11786679.18748  20654907.639    20654907.341
 -22648488.47949 -17648164.78048  20678324.966    20678324.753
 95  3 13  7 55 30.0000000  0  7G 6G21G26G22G28G23G17
 -18439733.34349 -14368612.49147  21805436.856    21805436.552
  -7870697.59849  -6133009.31747  22703913.490    22703914.185
 -14246792.72949 -11101393.62147  22391753.325    22391752.553
  -1745047.92148  -1359779.95146  23751999.977    23751999.826
  -1680760.194 8  -1309683.405 8  24200341.807    24200340.387    24200341.662
 -15135298.40149 -11793736.12048  20653184.156    20653183.689
 -22649156.41149 -17648685.24948  20678197.996    20678197.694
 95  3 13  7 56  0.0000000  0  7G 6G21G26G22G28G23G17
 -18351432.03149 -14299806.28647  21822240.007    21822239.528
  -7939649.46149  -6186738.02847  22690792.388    22690792.595
 -14201140.12749 -11065820.16747  22400440.715    22400439.743
  -1717174.51548  -1338060.42246  23757304.151    23757304.021
  -1784750.577 8  -1390714.886 8  24180553.052    24180551.605    24180552.886
 -15144008.90649 -11800523.52248  20651526.548    20651526.115
 -22649631.95849 -17649055.80948  20678107.474    20678107.021
 95  3 13  7 56 30.0000000  0  7G 6G21G26G22G28G23G17
 -18262782.59849 -14230728.83147  21839109.513    21839108.962
  -8008312.45549  -6240241.64547  22677726.484    22677726.676
 -14154988.84049 -11029858.12647  22409223.038    22409222.157
  -1688934.92448  -1316055.57546  23762677.990    23762679.293
  -1888609.558 8  -1471643.973 8  24160789.531    24160787.931    24160789.093
 -15152357.22749 -11807028.70048  20649937.881    20649937.533
 -22649894.50049 -17649260.38848  20678057.532    20678057.018
 95  3 13  7 57  0.0000000  0  7G 6G21G26G22G28G23G17
 -18173803.20449 -14161394.26847  21856041.655    21856041.196
  -8076703.79949  -6293533.59747  22664712.240    22664712.120
 -14108328.97449 -10993499.78547  22418102.206    22418101.465
  -1660325.91248  -1293762.84746  23768122.313    23768122.228
  -1992336.243 8  -1552469.986 8  24141051.056    24141049.493    24141050.584
 -15160350.91449 -11813257.53648  20648416.780    20648416.385
 -22649945.22249 -17649299.91348  20678047.846    20678047.484
 95  3 13  7 57 30.0000000  0  7G 6G21G26G22G28G23G17
 -18084465.67849 -14091780.62747  21873042.030    21873041.502
  -8144834.38049  -6346622.34947  22651747.439    22651746.893
 -14061136.98649 -10956726.80647  22427082.697    22427081.480
  -1631319.87948  -1271160.75946  23773642.084    23773642.126
  -2095914.818 8  -1633180.568 8  24121340.562    24121339.089    24121340.231
 -15167990.01049 -11819210.07148  20646963.124    20646962.854
 -22649772.01849 -17649164.95448  20678080.722    20678080.390
 95  3 13  7 58  0.0000000  0  7G 6G21G26G22G28G23G17
 -17994771.07449 -14021888.74647  21890110.191    21890109.949
  -8212722.45449  -6399522.13847  22638828.609    22638829.021
 -14013380.48049 -10919513.95347  22436170.160    22436169.220
  -1601891.88748  -1248229.87146  23779241.904    23779241.864
  -2199336.101 8  -1713768.626 8  24101660.456    24101658.743    24101660.056
 -15175266.15149 -11824879.78548  20645578.485    20645578.232
 -22649368.22949 -17648850.31648  20678157.589    20678157.382
 95  3 13  7 58 30.0000000  0  7G 6G21G26G22G28G23G17
 -17904725.64049 -13951723.48947  21907245.353    21907244.988
  -8280380.36049  -6452242.56247  22625953.610    22625953.830
 -13965068.93049 -10881868.58947  22445363.749    22445362.784
  -1572052.75148  -1224978.61146  23784920.175    23784920.732
  -2302607.453 8  -1794239.815 8  24082008.090    24082006.799    24082007.976
 -15182189.40149 -11830274.51848  20644261.056    20644260.701
 -22648743.22749 -17648363.30248  20678276.484    20678276.024
 95  3 13  7 59  0.0000000  0  7G 6G21G26G22G28G23G17
 -17814313.37049 -13881272.37047  21924450.299    21924450.374
  -8347817.64249  -6504791.08947  22613120.805    22613120.516
 -13916210.18349 -10843796.84447  22454661.334    22454660.340
  -1541791.92048  -1201398.75446  23790678.381    23790679.585
  -2405720.894 8  -1874588.002 8  24062386.548    24062385.063    24062386.341
 -15188764.49549 -11835397.96148  20643009.719    20643009.417
 -22647895.44649 -17647702.69648  20678437.736    20678437.498
 95  3 13  7 59 30.0000000  0  8G 6G21G26G22G28G 1G23G17
 -17723541.73349 -13810541.23147  21941723.335    21941723.080
  -8415049.87149  -6557179.82247  22600326.763    22600326.864
 -13866835.35249 -10805322.94547  22464057.026    22464055.376
  -1511120.56648  -1177499.01846  23796515.095    23796514.696
  -2508679.421 8  -1954815.442 8  24042793.965    24042792.685    24042793.843
        -0.44057         0.53054  25135518.883    25135517.204
 -15194989.45349 -11840248.57048  20641825.337    20641824.928
 -22646822.09249 -17646866.32148  20678641.962    20678641.562
 95  3 13  8  0  0.0000000  0  8G 6G21G26G22G28G 1G23G17
 -17632465.45349 -13739572.72147  21959054.617    21959054.363
  -8482099.64949  -6609426.38647  22587567.757    22587567.860
 -13816995.21449 -10766486.47247  22473541.478    22473540.072
  -1480080.92548  -1153312.28946  23802422.061    23802421.945
  -2611518.198 8  -2034949.615 8  24023224.608    24023223.152    24023224.284
   -109763.24547    -85528.89644  25114631.730    25114630.082
 -15200897.96149 -11844852.59748  20640701.074    20640700.519
 -22645563.59149 -17645885.68148  20678881.544    20678880.968
 95  3 13  8  0 30.0000000  0  8G 6G21G26G22G28G 1G23G17
 -17541051.24449 -13668340.89147  21976449.978    21976450.256
  -8548929.54349  -6661501.62347  22574850.349    22574850.277
 -13766678.67249 -10727278.77647  22483116.002    22483115.243
  -1448659.39648  -1128827.99746  23808401.052    23808400.723
  -2714200.269 8  -2114961.628 8  24003684.832    24003683.467    24003684.452
   -219603.43048   -171118.62244  25093730.158    25093725.542
 -15206459.52449 -11849186.27448  20639642.667    20639642.253
 -22644086.32849 -17644734.57348  20679162.728    20679162.297
 95  3 13  8  1  0.0000000  0  8G 6G21G26G22G28G 1G23G17
 -17449281.50549 -13596832.01447  21993913.462    21993913.230
  -8615519.10149  -6713389.58147  22562179.051    22562179.014
 -13715875.65349 -10687692.01347  22492783.544    22492782.936
  -1416831.24048  -1104026.85146  23814457.864    23814457.003
  -2816698.132 8  -2194830.141 8  23984180.284    23984178.782    23984179.753
   -329515.05148   -256763.99344  25072814.713    25072816.512
 -15211650.00449 -11853230.79448  20638654.716    20638654.421
 -22642372.49449 -17643399.12748  20679488.732    20679488.447
 95  3 13  8  1 30.0000000  0  8G 6G21G26G22G28G 1G23G17
 -17357161.04049 -13525049.85447  22011443.689    22011443.485
  -8681842.27849  -6765069.96547  22549558.058    22549557.775
 -13664578.67249 -10647720.34947  22502545.005    22502544.160
  -1384595.09648  -1078907.78946  23820592.241    23820592.424
  -2919010.280 8  -2274553.908 8  23964710.829    23964709.625    23964710.309
   -439491.03748   -342459.59144  25051887.061    25051892.074
 -15216474.58749 -11856990.20148  20637736.781    20637736.345
 -22640438.13749 -17641891.83248  20679856.731    20679856.524
 95  3 13  8  2  0.0000000  0  8G 6G21G26G22G28G 1G23G17
 -17264685.06449 -13452990.66747  22029041.167    22029041.274
  -8747888.45949  -6816534.50847  22536989.703    22536989.499
 -13612771.12549 -10607350.83847  22512403.725    22512402.779
  -1351958.91748  -1053477.00646  23826802.819    23826802.799
  -3021135.373 8  -2354131.924 8  23945277.239    23945275.608    23945276.793
   -549520.04348   -428196.42244  25030949.708    25030951.505
 -15220935.73949 -11860466.41948  20636888.016    20636887.513
 -22638292.92149 -17640220.22648  20680265.015    20680264.906
 95  3 13  8  2 30.0000000  0  8G 6G21G26G22G28G 1G23G17
 -17171875.49149 -13380671.53747  22046702.294    22046701.490
  -8813693.07649  -6867810.82547  22524467.524    22524467.433
 -13560476.21149 -10566601.54947  22522354.977    22522354.613
  -1318949.98948  -1027755.77446  23833084.116    23833084.589
  -3123098.382 8  -2433583.649 8  23925874.573    23925872.939    23925873.750
   -659643.15748   -514006.74544  25009993.143    25009995.770
 -15225048.83049 -11863671.41748  20636105.147    20636104.850
 -22635963.32749 -17638404.95248  20680708.358    20680708.157
 95  3 13  8  3  0.0000000  0  8G 6G21G26G22G28G 1G23G17
 -17078709.78149 -13308074.89047  22064431.015    22064432.012
  -8879205.73549  -6918859.64347  22512000.984    22512001.276
 -13507668.96649 -10525453.05747  22532403.611    22532402.199
  -1285538.98448  -1001721.22246  23839442.035    23839440.842
  -3224874.606 8  -2512889.810 8  23906507.248    23906505.327    23906506.581
   -769822.79448   -599860.95144  24989026.543    24989029.177
 -15228793.81649 -11866589.58348  20635392.523    20635392.143
 -22633422.23549 -17636424.87748  20681191.875    20681191.783
 95  3 13  8  3 30.0000000  0  8G21G 6G26G22G28G 1G23G17
  -8944406.89249  -6969665.72147  22499593.709    22499594.147
 -16985187.34249 -13235200.28247  22082227.490    22082227.773
 -13454329.89249 -10483890.14147  22542553.764    22542553.054
  -1251731.25448   -975377.55946  23845875.386    23845875.348
  -3326458.107 8  -2592045.811 8  23887176.119    23887174.888    23887175.753
   -880043.32048   -685747.15844  24968052.193    24968045.481
 -15232171.82749 -11869221.79448  20634749.756    20634749.397
 -22630647.93849 -17634263.08248  20681719.794    20681719.771
 95  3 13  8  4  0.0000000  0  8G21G 6G26G22G28G 1G23G17
  -9009343.34549  -7020265.54447  22487236.574    22487236.696
 -16891361.72249 -13162089.42247  22100081.991    22100081.861
 -13400502.02449 -10441946.34547  22552796.891    22552795.663
  -1217571.08248   -948759.26646  23852376.090    23852375.935
  -3427883.247 8  -2671078.415 8  23867875.566    23867874.095    23867875.349
   -990328.51948   -771683.64045  24947065.597    24947068.265
 -15235207.85949 -11871587.52748  20634172.050    20634171.614
 -22627661.19249 -17631935.74748  20682288.318    20682288.054
 95  3 13  8  4 30.0000000  0  8G21G 6G26G22G28G 1G23G17
  -9074005.46549  -7070651.59347  22474931.623    22474931.403
 -16797245.98649 -13088752.49547  22117991.684    22117992.008
 -13346208.13849 -10399639.41947  22563128.876    22563127.866
  -1183058.01948   -921865.98546  23858943.452    23858943.592
  -3529147.889 8  -2749985.925 8  23848605.341    23848604.322    23848605.158
  -1100678.93548   -857670.91244  24926066.715    24926066.220
 -15237915.49649 -11873697.36748  20633656.794    20633656.493
 -22624459.80749 -17629441.16248  20682897.658    20682897.241
 95  3 13  8  5  0.0000000  0  8G21G 6G26G22G28G 1G23G17
  -9138358.85449  -7120797.07347  22462685.501    22462685.657
 -16702818.49549 -13015172.64847  22135960.938    22135960.905
 -13291412.28949 -10356941.35847  22573556.528    22573555.596
  -1148162.46348   -894674.66346  23865584.065    23865584.623
  -3630215.105 8  -2828739.618 8  23829373.097    23829371.692    23829372.711
  -1211043.85448   -943669.58245  24905065.030    24905063.760
 -15240275.51249 -11875536.33648  20633207.696    20633207.306
 -22621015.84949 -17626757.55348  20683553.041    20683552.663
 95  3 13  8  5 30.0000000  0  8G21G 6G26G22G28G 1G23G17
  -9202455.82949  -7170742.74947  22450488.369    22450488.701
 -16608101.71649 -12941367.38847  22153985.169    22153985.198
 -13236112.59749 -10313850.68447  22584079.629    22584077.648
  -1112900.81048   -867198.07046  23872293.901    23872293.429
  -3731095.427 8  -2907347.661 8  23810176.402    23810174.906    23810175.784
  -1321438.21648  -1029691.14144  24884057.580    24884060.934
 -15242293.69249 -11877108.94448  20632823.693    20632823.248
 -22617355.73549 -17623905.51248  20684249.487    20684249.225
 95  3 13  8  6  0.0000000  0  8G21G 6G26G22G28G 1G23G17
  -9266305.03049  -7220495.35547  22438338.343    22438338.220
 -16513077.22349 -12867322.34147  22172067.534    22172067.308
 -13180320.11649 -10270376.03347  22594696.848    22594694.716
  -1077254.99548   -839422.12346  23879076.971    23879077.583
  -3831775.583 8  -2985799.737 8  23791017.479    23791016.029    23791016.901
  -1431856.93948  -1115731.71245  24863045.701    24863046.020
 -15243966.95449 -11878412.78648  20632505.158    20632504.766
 -22613487.93949 -17620891.64648  20684985.491    20684985.305
 95  3 13  8  6 30.0000000  0  8G21G 6G26G22G28G 1G23G17
  -9329915.87349  -7270062.23047  22426233.558    22426233.817
 -16417733.99149 -12793028.93547  22190210.645    22190211.043
 -13124044.73749 -10226525.09147  22605405.676    22605404.136
  -1041226.68848   -811348.14546  23885932.977    23885934.048
  -3932257.000 8  -3064096.958 8  23771896.505    23771895.170    23771896.027
  -1542312.72948  -1201801.13145  24842026.478    24842025.965
 -15245313.89349 -11879462.35048  20632248.850    20632248.467
 -22609415.47449 -17617718.29448  20685760.509    20685760.126
 95  3 13  8  7  0.0000000  0  8G21G 6G26G22G28G 1G23G17
  -9393293.91249  -7319447.70647  22414173.090    22414173.803
 -16322052.11849 -12718471.64847  22208418.250    22208418.237
 -13067257.85849 -10182275.57747  22616211.554    22616210.356
  -1004812.76548   -782973.67646  23892862.382    23892862.591
  -4032528.374 8  -3142230.491 8  23752815.271    23752814.058    23752815.029
  -1652795.54248  -1287891.60345  24821002.563    24821005.600
 -15246314.13749 -11880241.76548  20632058.479    20632058.085
 -22605121.40449 -17614372.25948  20686577.637    20686577.271
 95  3 13  8  7 30.0000000  0  8G21G 6G26G22G28G 1G23G17
  -9456438.38849  -7368651.18447  22402157.218    22402157.155
 -16226020.75949 -12643642.04047  22226692.500    22226691.838
 -13009987.48149 -10137649.30847  22627109.587    22627108.782
   -968033.13148   -754314.25146  23899861.439    23899861.333
  -4132596.848 8  -3220205.915 8  23733772.971    23733771.920    23733772.746
  -1763321.52548  -1374015.75245  24799970.254    24799970.376
 -15246970.20849 -11880752.99248  20631933.690    20631933.275
 -22600596.23149 -17610846.15248  20687438.680    20687438.323
 95  3 13  8  8  0.0000000  0  8G21G 6G26G22G28G 1G23G17
  -9519331.30949  -7417658.64847  22390189.116    22390189.232
 -16129641.22649 -12568541.11747  22245032.959    22245032.148
 -12952259.62149 -10092666.55947  22638095.182    22638093.935
   -930905.00348   -725383.26246  23906926.460    23906926.850
  -4232467.242 8  -3298026.998 8  23714768.018    23714766.984    23714767.967
  -1873891.44848  -1460174.09245  24778929.322    24778929.437
 -15247288.80649 -11881001.25148  20631873.144    20631872.804
 -22595835.41749 -17607136.42948  20688344.500    20688344.236
 95  3 13  8  8 30.0000000  0  8G21G 6G22G28G26G 1G23G17
  -9581978.54149  -7466474.66547  22378267.730    22378267.797
 -16032940.79949 -12493190.15747  22263434.610    22263434.382
   -893447.33448   -696195.47046  23914054.342    23914054.035
  -4332148.021 8  -3375700.320 8  23695799.707    23695798.515    23695799.497
 -12894065.59249 -10047320.56547  22649169.224    22649167.480
  -1984510.42048  -1546370.64845  24757878.996    24757878.522
 -15247266.45149 -11880983.82848  20631877.208    20631876.872
 -22590848.55249 -17603250.56148  20689293.420    20689293.246
 95  3 13  8  9  0.0000000  0  8G21G 6G22G28G26G 1G23G17
  -9644376.91249  -7515096.76147  22366393.485    22366393.827
 -15935931.17049 -12417598.25647  22281894.880    22281894.349
   -855661.60948   -666752.05046  23921245.330    23921244.542
  -4431631.776 8  -3453220.120 8  23676868.772    23676867.265    23676868.402
 -12835398.77149 -10001606.15847  22660333.285    22660331.910
  -2095177.25548  -1632604.53145  24736819.812    24736819.717
 -15246899.04949 -11880697.53748  20631947.105    20631946.896
 -22585644.51649 -17599195.46748  20690283.711    20690283.564
 95  3 13  8  9 30.0000000  0  8G21G 6G22G28G26G 1G23G17
  -9706517.27949  -7563517.80747  22354568.474    22354569.040
 -15838608.99649 -12341762.81747  22300414.692    22300414.306
   -817525.30848   -637035.44946  23928502.435    23928501.331
  -4530904.492 8  -3530575.469 8  23657977.609    23657976.371    23657977.351
 -12776265.07249  -9955527.95147  22671585.756    22671583.818
  -2205875.73548  -1718863.06245  24715755.034    24715753.540
 -15246191.38249 -11880146.10348  20632081.750    20632081.501
 -22580228.66449 -17594975.32548  20691314.437    20691314.123
 95  3 13  8 10  0.0000000  0  8G21G 6G22G28G26G 1G23G17
  -9768400.12049  -7611738.19147  22342792.558    22342792.730
 -15740982.95249 -12265690.61347  22318992.038    22318992.025
   -779006.63048   -607020.90146  23935832.049    23935833.343
  -4629949.101 8  -3607753.093 8  23639130.157    23639128.779    23639129.829
 -12716643.98049  -9909069.95846  22682931.466    22682930.445
  -2316580.74948  -1805126.72245  24694688.427    24694688.774
 -15245142.00349 -11879328.40548  20632281.568    20632281.146
 -22574597.80749 -17590587.64348  20692385.666    20692385.735
 95  3 13  8 10 30.0000000  0  8G21G 6G22G28G26G 1G23G17
  -9830046.12149  -7659774.02447  22331061.638    22331061.763
 -15643082.38949 -12189404.48447  22337622.152    22337621.949
   -740115.31548   -576715.99146  23943233.086    23943232.060
  -4728779.276 8  -3684763.607 8  23620323.270    23620321.986    23620323.100
 -12656550.49949  -9862243.85746  22694366.491    22694365.331
  -2427312.33248  -1891411.04245  24673616.706    24673617.410
 -15243781.43049 -11878268.21348  20632540.506    20632539.889
 -22568761.95649 -17586040.22848  20693496.337    20693496.300
 95  3 13  8 11  0.0000000  0  8G21G 6G22G28G26G 1G23G17
  -9891451.06849  -7707622.01347  22319376.628    22319376.557
 -15544906.85249 -12112904.08146  22356304.341    22356303.971
   -700865.95448   -546132.09546  23950701.752    23950702.171
  -4827396.944 8  -3761608.532 8  23601556.810    23601555.658    23601556.701
 -12596002.32049  -9815063.45647  22705888.252    22705887.329
  -2538073.13248  -1977718.17345  24652539.584    24652538.573
 -15242129.31649 -11876980.84848  20632854.927    20632854.504
 -22562710.74049 -17581324.99448  20694647.864    20694647.743
 95  3 13  8 11 30.0000000  0  8G21G 6G22G28G26G 1G23G17
  -9952585.70949  -7755259.37747  22307743.314    22307743.621
 -15446428.80849 -12036167.95346  22375044.019    22375043.270
   -661240.64248   -515255.23246  23958242.113    23958243.566
  -4925778.635 8  -3838269.572 8  23582835.596    23582834.151    23582835.342
 -12534973.95049  -9767508.88447  22717501.676    22717500.658
  -2648829.66448  -2064021.95545  24631463.449    24631463.704
 -15240155.76149 -11875443.01048  20633230.431    20633229.981
 -22556406.08049 -17576412.27848  20695847.399    20695847.432
 95  3 13  8 12  0.0000000  0  8G21G22G 6G28G26G 1G23G17
 -10013423.08649  -7802665.11047  22296166.376    22296166.145
   -621242.45348   -484087.82946  23965853.393    23965853.408
 -15347640.24249 -11959189.85946  22393842.575    22393842.310
  -5023899.109 8  -3914727.078 8  23564164.109    23564162.649    23564163.759
 -12473434.16149  -9719555.80046  22729211.927    22729211.315
  -2759571.63248  -2150314.41145  24610389.799    24610390.038
 -15237827.97849 -11873629.14648  20633673.325    20633672.981
 -22549807.79849 -17571270.76748  20697103.071    20697103.001
 95  3 13  8 12 30.0000000  0  8G21G22G 6G28G26G 1G23G17
 -10074000.88449  -7849868.56847  22284638.690    22284638.692
   -580937.03448   -452681.00846  23973523.481    23973523.610
 -15248580.59849 -11882000.54946  22412693.125    22412693.070
  -5121801.991 8  -3991015.038 8  23545533.960    23545532.136    23545533.514
 -12411426.16049  -9671237.88746  22741011.936    22741010.864
  -2870352.28048  -2236636.94745  24589308.746    24589308.123
 -15235187.73849 -11871571.80848  20634175.777    20634175.465
 -22542965.67949 -17565939.25248  20698405.362    20698405.222
 95  3 13  8 13  0.0000000  0  8G21G22G 6G28G26G 1G23G17
 -10134367.72449  -7896907.65147  22273151.318    22273151.575
   -540368.86448   -421069.44546  23981243.458    23981241.760
 -15149274.98049 -11804619.56246  22431590.339    22431590.114
  -5219528.748 8  -4067165.737 8  23526937.282    23526935.344    23526936.762
 -12348997.70449  -9622592.33746  22752891.813    22752890.209
  -2981202.30748  -2323013.60345  24568214.491    24568214.668
 -15232267.42849 -11869296.23548  20634731.425    20634730.972
 -22535933.85949 -17560459.91348  20699743.501    20699743.120
 95  3 13  8 13 30.0000000  0  8G21G22G 6G28G26G 1G23G17
 -10194508.87749  -7943770.86947  22261706.869    22261706.783
   -499512.33048   -389233.16746  23989018.198    23989019.737
 -15049700.98149 -11727029.45746  22450538.633    22450538.465
  -5317054.857 8  -4143160.108 8  23508378.686    23508376.792    23508378.135
 -12286129.77749  -9573604.34646  22764855.159    22764854.004
  -3092090.05048  -2409419.63545  24547113.275    24547113.908
 -15229037.24749 -11866779.20648  20635346.206    20635345.809
 -22528702.87749 -17554825.37648  20701119.403    20701119.285
 95  3 13  8 14  0.0000000  0  8G21G22G 6G28G26G 1G23G17
 -10254365.69349  -7990412.52947  22250316.418    22250316.611
   -458305.28548   -357123.79846  23996859.439    23996860.361
 -14949800.02849 -11649184.58646  22469549.491    22469548.711
  -5414313.209 8  -4218945.835 8  23489870.911    23489869.172    23489870.452
 -12222769.53049  -9524232.71746  22776912.360    22776911.110
  -3202943.42048  -2495798.89845  24526018.489    24526020.604
 -15225432.58649 -11863970.37648  20636032.136    20636031.678
 -22521228.81449 -17549001.42948  20702541.682    20702541.455
 95  3 13  8 14 30.0000000  0  8G21G22G 6G28G26G 1G23G17
 -10313969.36349  -8036856.92547  22238974.118    22238974.235
   -416760.68248   -324751.41546  24004765.161    24004765.187
 -14849587.42149 -11571096.86846  22488619.458    22488618.297
  -5511329.079 8  -4294542.614 8  23471409.521    23471407.685    23471408.976
 -12158948.68349  -9474502.18346  22789057.172    22789056.203
  -3313768.70048  -2582156.25145  24504929.331    24504931.593
 -15221480.35349 -11860890.70748  20636784.241    20636783.766
 -22513549.27549 -17543017.37448  20704003.165    20704002.723
 95  3 13  8 15  0.0000000  0  8G21G22G 6G28G26G 1G23G17
 -10373323.73149  -8083107.07447  22227679.500    22227679.299
   -374880.49348   -292117.47746  24012735.059    24012735.064
 -14749071.61549 -11492772.86646  22507747.438    22507745.920
  -5608097.000 8  -4369946.177 8  23452994.999    23452993.281    23452994.620
 -12094668.97349  -9424414.10546  22801289.468    22801287.761
  -3424563.52048  -2668489.88745  24483845.710    24483847.940
 -15217176.05949 -11857536.70448  20637603.162    20637602.709
 -22505657.62949 -17536868.03948  20705504.889    20705504.347
 95  3 13  8 15 30.0000000  0  8G21G22G 6G28G26G 1G23G17
 -10432439.43449  -8129171.23947  22216430.070    22216430.250
   -332684.27848   -259237.30546  24020764.454    24020765.248
 -14648285.06849 -11414237.91746  22526926.336    22526924.824
  -5704623.832 8  -4445161.874 8  23434626.496    23434624.663    23434626.193
 -12029940.00449  -9373975.93646  22813606.984    22813604.828
  -3535355.02848  -2754820.95745  24462762.947    24462761.209
 -15212538.72549 -11853923.19148  20638485.645    20638485.284
 -22497560.47149 -17530558.56648  20707045.673    20707045.409
 95  3 13  8 16  0.0000000  0  8G21G22G 6G28G26G 1G23G17
 -10491326.35549  -8175057.13447  22205224.138    22205224.930
   -290190.67648   -226125.41846  24028850.659    24028850.311
 -14547255.94549 -11335513.95146  22546151.341    22546150.739
  -5800920.085 8  -4520197.905 8  23416301.980    23416300.243    23416301.507
 -11964781.35749  -9323202.95946  22826006.138    22826004.398
  -3646170.24648  -2841170.43445  24441675.734    24441678.375
 -15207593.84249 -11850070.03048  20639426.609    20639426.168
 -22489259.31549 -17524090.13248  20708625.344    20708625.074
 95  3 13  8 16 30.0000000  0  8G21G22G 6G28G26G 1G23G17
 -10549950.32349  -8220738.13147  22194068.380    22194068.504
   -247374.54148   -192762.18446  24036998.534    24036998.784
 -14445956.40449 -11256579.24446  22565428.109    22565426.673
  -5896958.639 8  -4595033.136 8  23398026.125    23398024.613    23398025.890
 -11899172.69649  -9272079.33146  22838490.786    22838489.444
  -3756994.70348  -2927527.14645  24420586.300    24420589.347
 -15202332.31349 -11845970.13048  20640427.988    20640427.637
 -22480704.57149 -17517424.09248  20710253.241    20710253.082
 95  3 13  8 17  0.0000000  0  8G21G 6G22G28G26G 1G23G17
 -10608293.26949  -8266200.14747  22182966.017    22182966.145
 -14344385.95849 -11177433.45346  22584756.237    22584755.685
   -204235.60848   -159147.46346  24045207.295    24045208.753
  -5992729.516 8  -4669659.773 8  23379801.441    23379800.195    23379801.283
 -11833112.10449  -9220603.54146  22851061.508    22851060.152
  -3867821.59348  -3013885.76645  24399496.419    24399497.201
 -15196756.64449 -11841625.45348  20641488.954    20641488.526
 -22471870.30549 -17510540.24648  20711934.208    20711934.032
 95  3 13  8 17 30.0000000  0  8G21G 6G22G28G26G 1G23G17
 -10666359.60149  -8311446.62547  22171916.405    22171916.548
 -14242547.02049 -11098078.46046  22604135.403    22604135.570
   -160768.96848   -125277.37046  24053478.947    24053479.964
  -6088237.218 8  -4744081.346 8  23361626.802    23361625.603    23361626.685
 -11766614.60749  -9168787.30546  22863715.219    22863714.530
  -3978643.11548  -3100240.21545  24378407.881    24378408.725
 -15190885.84649 -11837050.80348  20642606.034    20642605.721
 -22462758.18549 -17503439.89548  20713668.351    20713668.028
 95  3 13  8 18  0.0000000  0  8G21G 6G22G28G26G 1G23G17
 -10724145.78349  -8356474.80147  22160919.986    22160920.314
 -14140422.70649 -11018501.08346  22623569.031    22623569.152
   -116961.72448    -91141.85746  24061815.311    24061814.938
  -6183478.065 8  -4818294.966 8  23343502.868    23343501.780    23343502.853
 -11699677.35549  -9116628.41146  22876453.019    22876451.856
  -4089444.09348  -3186578.63245  24357323.200    24357325.143
 -15184720.58549 -11832246.70548  20643779.286    20643778.891
 -22453364.38049 -17496120.05248  20715455.927    20715455.665
 95  3 13  8 18 30.0000000  0  7G21G 6G28G26G 1G23G17
 -10781662.50749  -8401293.01447  22149974.904    22149975.266
 -14038004.64948 -10938694.82546  22643058.424    22643057.836
  -6278454.702 8  -4892302.717 8  23325429.602    23325428.362    23325429.384
 -11632300.30449  -9064126.79946  22889274.550    22889273.775
  -4200214.21348  -3272893.00645  24336244.478    24336245.660
 -15178265.67649 -11827216.90548  20645007.618    20645007.077
 -22443707.44249 -17488595.16348  20717293.572    20717293.220
 95  3 13  8 19  0.0000000  0  7G21G 6G28G26G 1G23G17
 -10838945.07849  -8445928.76947  22139074.408    22139074.567
 -13935331.01548 -10858689.41146  22662596.750    22662596.278
  -6373195.527 8  -4966126.725 8  23307400.966    23307399.661    23307400.776
 -11564513.64649  -9011306.02246  22902174.118    22902173.565
  -4310980.74548  -3359204.58345  24315166.179    24315165.393
 -15171545.16749 -11821980.14448  20646286.612    20646286.105
 -22433834.64249 -17480902.07248  20719172.197    20719172.142
 95  3 13  8 19 30.0000000  0  7G21G 6G28G26G 1G23G17
 -10895992.30349  -8490381.12947  22128218.538    22128219.231
 -13832391.07248 -10778476.48246  22682185.467    22682185.487
  -6467688.761 8  -5039757.797 8  23289419.542    23289418.344    23289419.218
 -11496310.82349  -8958160.97246  22915152.613    22915152.128
  -4421743.34948  -3445513.10045  24294088.983    24294087.205
 -15164540.20549 -11816521.73148  20647619.561    20647619.063
 -22423762.34049 -17473053.52148  20721088.786    20721088.825
 95  3 13  8 20  0.0000000  0  7G21G 6G28G26G 1G23G17
 -10952777.82749  -8534629.57747  22117412.734    22117413.068
 -13729173.51148 -10698047.21946  22701827.005    22701826.629
  -6561915.065 8  -5113180.879 8  23271488.753    23271487.516    23271488.550
 -11427669.42548  -8904674.16446  22928214.389    22928214.283
  -4532485.81648  -3531805.93845  24273015.294    24273015.141
 -15157220.51349 -11810818.07248  20649012.363    20649011.964
 -22413477.41449 -17465039.30048  20723045.969    20723045.684
 95  3 13  8 20 30.0000000  0  7G21G 6G28G26G 1G23G17
 -11009290.45549  -8578665.37547  22106658.951    22106659.095
 -13625698.37448 -10617417.27746  22721517.544    22721517.905
  -6655866.787 8  -5186389.992 8  23253610.384    23253609.057    23253610.163
 -11358589.39848  -8850845.58046  22941359.572    22941359.587
  -4643197.53348  -3618074.80845  24251947.754    24251947.464
 -15149578.06449 -11804862.91348  20650466.663    20650466.319
 -22402972.33949 -17456853.53648  20725045.212    20725044.926
 95  3 13  8 21  0.0000000  0  7G21G 6G28G26G 1G23G17
 -11065544.69349  -8622499.83147  22095954.088    22095953.908
 -13521998.62248 -10536612.29446  22741251.178    22741250.568
  -6749553.136 8  -5259392.311 8  23235782.475    23235781.018    23235782.178
 -11289085.22048  -8796686.47846  22954585.867    22954585.519
  -4753885.71148  -3704325.33245  24230884.379    24230884.342
 -15141620.65049 -11798662.32548  20651980.893    20651980.367
 -22392245.51649 -17448494.97748  20727086.332    20727086.182
 95  3 13  8 21 30.0000000  0  7G21G 6G28G26G 1G23G17
 -11121518.19249  -8666115.52547  22085302.585    22085302.449
 -13418056.99548 -10455618.83446  22761030.588    22761029.718
  -6842947.269 8  -5332166.935 8  23218010.298    23218008.694    23218009.991
 -11219129.28948  -8742175.36646  22967898.482    22967898.048
  -4864525.33248  -3790538.00545  24209830.364    24209829.846
 -15133330.34049 -11792202.34648  20653558.559    20653558.059
 -22381268.64049 -17439941.56748  20729175.053    20729174.904
 95  3 13  8 22  0.0000000  0  7G21G 6G28G26G 1G23G17
 -11177214.20749  -8709515.00147  22074704.130    22074704.380
 -13313897.62648 -10374455.69946  22780851.591    22780850.461
  -6936057.784 8  -5404720.566 8  23200291.742    23200290.460    23200291.546
 -11148738.51049  -8687325.41146  22981293.579    22981293.038
  -4975119.69948  -3876715.47745  24188784.780    24188783.830
 -15124734.53449 -11785504.31348  20655194.250    20655193.609
 -22370035.59649 -17431188.54548  20731312.754    20731312.297
 95  3 13  8 22 30.0000000  0  7G21G 6G28G26G 1G23G17
 -11232665.53849  -8752723.81647  22064151.997    22064152.003
 -13209532.94348 -10293132.58546  22800711.784    22800711.102
  -7028895.739 8  -5477061.822 8  23182625.177    23182623.965    23182625.002
 -11077938.56249  -8632156.62246  22994766.492    22994765.274
  -5085689.38748  -3962873.64945  24167744.210    24167741.716
 -15115853.33549 -11778583.89648  20656884.226    20656883.830
 -22358557.46349 -17422244.54148  20733497.024    20733496.702
 95  3 13  8 23  0.0000000  0  7G21G 6G28G26G 1G23G17
 -11287864.34749  -8795735.86147  22053648.002    22053648.293
 -13104927.91748 -10211622.19446  22820617.462    22820617.863
  -7121436.913 8  -5549171.813 8  23165015.293    23165014.067    23165015.026
 -11006718.72849  -8576660.64246  23008319.042    23008317.596
  -5196223.15248  -4049003.86945  24146710.382    24146710.217
 -15106660.73149 -11771420.82648  20658633.421    20658633.245
 -22346816.21049 -17413095.51048  20735731.358    20735730.899
 95  3 13  8 23 30.0000000  0  7G21G 6G28G26G 1G23G17
 -11342818.97149  -8838557.62547  22043190.422    22043190.547
 -13000085.02748 -10129926.45946  22840568.490    22840567.532
  -7213688.689 8  -5621056.293 8  23147460.371    23147459.216    23147460.125
 -10935091.18149  -8520846.96646  23021949.247    23021948.128
  -5306731.34248  -4135114.12645  24125681.436    24125680.321
 -15097180.67749 -11764033.76748  20660437.523    20660437.399
 -22334829.47349 -17403755.20048  20738012.454    20738011.934
 95  3 13  8 24  0.0000000  0  7G21G 6G28G26G 1G23G17
 -11397522.35349  -8881183.62547  22032780.757    22032780.834
 -12894983.16248 -10048028.91746  22860568.577    22860566.958
  -7305631.423 8  -5692699.971 8  23129964.161    23129963.201    23129964.016
 -10863045.91949  -8464707.79646  23035659.114    23035658.512
  -5417181.67948  -4221179.30245  24104663.546    24104662.860
 -15087395.03349 -11756408.58448  20662299.741    20662299.465
 -22322572.08549 -17394203.99148  20740344.909    20740344.607
 95  3 13  8 24 30.0000000  0  7G21G 6G28G26G 1G23G17
 -11452000.27049  -8923633.93847  22022413.846    22022413.588
 -12789638.38748  -9965942.09346  22880614.851    22880614.115
  -7397279.053 8  -5764113.691 8  23112524.379    23112523.200    23112524.073
 -10790594.02649  -8408251.76546  23049446.393    23049444.562
  -5527594.53048  -4307215.29645  24083652.672    24083652.105
 -15077319.45249 -11748557.47748  20664217.021    20664216.664
 -22310060.27549 -17384454.53048  20742725.869    20742725.534
 95  3 13  8 25  0.0000000  0  7G21G 6G28G26G 1G23G17
 -11506233.48849  -8965893.57447  22012093.584    22012093.445
 -12684056.17548  -9883670.26946  22900706.396    22900706.175
  -7488627.664 8  -5835294.414 8  23095141.357    23095140.130    23095140.996
 -10717722.75849  -8351468.96246  23063313.717    23063312.772
  -5637950.92448  -4393207.26646  24062652.172    24062650.334
 -15066968.95249 -11740492.14548  20666186.452    20666186.102
 -22297296.07049 -17374508.39148  20745154.727    20745154.484
 95  3 13  8 25 30.0000000  0  7G21G 6G28G26G 1G23G17
 -11560207.65149  -9007951.35547  22001822.711    22001822.853
 -12578243.73748  -9801219.03746  22920841.797    22920841.500
  -7579673.903 8  -5906239.519 8  23077815.847    23077814.557    23077815.476
 -10644424.94049  -8294353.76946  23077261.776    23077260.300
  -5748228.76848  -4479138.06145  24041667.508    24041667.574
 -15056351.95749 -11732219.16148  20668207.068    20668206.529
 -22284278.61349 -17364364.91948  20747631.918    20747631.625
 95  3 13  8 26  0.0000000  0  7G21G 6G28G26G 1G23G17
 -11613917.07749  -9049802.84447  21991602.089    21991602.215
 -12472206.22948  -9718592.42746  22941019.716    22941020.053
  -7670415.319 8  -5976947.107 8  23060548.313    23060546.993    23060547.878
 -10570711.22549  -8236914.51646  23091288.778    23091287.309
  -5858427.84248  -4565007.45046  24020697.227    24020697.466
 -15045447.67749 -11723722.31548  20670282.086    20670281.544
 -22271005.75649 -17354022.43648  20750157.579    20750157.236
 95  3 13  8 26 30.0000000  0  7G21G 6G28G26G 1G23G17
 -11667356.19749  -9091443.70347  21981432.900    21981433.108
 -12365968.02148  -9635809.41946  22961236.222    22961236.913
  -7760861.044 8  -6047424.285 8  23043337.039    23043335.762    23043336.678
 -10496586.88849  -8179155.28446  23105394.080    23105392.879
  -5968557.17748  -4650822.49446  23999740.485    23999739.046
 -15034261.87149 -11715006.10048  20672410.595    20672410.253
 -22257497.86649 -17343496.81348  20752727.850    20752727.507
 95  3 13  8 27  0.0000000  0  7G21G 6G28G26G 1G23G17
 -11720543.02549  -9132887.97047  21971311.719    21971311.895
 -12259542.32448  -9552880.31846  22981488.311    22981488.165
  -7851020.080 8  -6117678.067 8  23026180.328    23026179.115    23026180.065
 -10422073.09848  -8121092.60046  23119573.287    23119571.713
  -6078617.03148  -4736583.42546  23978796.907    23978797.345
 -15022796.83549 -11706072.30148  20674592.175    20674591.868
 -22243773.98849 -17332802.88148  20755339.469    20755339.257
 95  3 13  8 27 30.0000000  0  7G21G 6G28G26G 1G23G17
 -11773512.00349  -9174162.48247  21961231.983    21961232.346
 -12152952.18248  -9469823.05046  23001771.402    23001771.721
  -7940905.882 8  -6187718.941 8  23009075.510    23009074.328    23009075.315
 -10347201.99448  -8062751.48246  23133820.755    23133818.241
  -6188640.76148  -4822316.18846  23957859.820    23957859.386
 -15011058.07749 -11696925.21148  20676825.965    20676825.649
 -22229850.44349 -17321953.36948  20757989.137    20757988.900
 95  3 13  8 28  0.0000000  0  7G21G 6G28G26G 1G23G17
 -11826239.02049  -9215248.45647  21951198.491    21951198.204
 -12046169.90948  -9386616.10646  23022091.728    23022090.488
  -8030489.264 8  -6257524.158 8  22992028.317    22992027.180    22992028.159
 -10271952.14748  -8004115.22946  23148140.290    23148139.411
  -6298615.61048  -4908010.87146  23936932.433    23936931.894
 -14999020.62449 -11687545.37448  20679116.803    20679116.338
 -22215691.50949 -17310920.44148  20760683.579    20760683.139
 95  3 13  8 28 30.0000000  0  7G21G 6G28G26G 1G23G17
 -11878723.88149  -9256145.74747  21941211.069    21941211.263
 -11939170.50048  -9303239.96946  23042453.403    23042453.511
  -8119754.129 8  -6327081.184 8  22975042.082    22975040.634    22975041.642
 -10196309.55248  -7945172.95346  23162534.381    23162532.996
  -6408530.45248  -4993658.77946  23916016.291    23916015.378
 -14986685.96049 -11677933.94148  20681464.061    20681463.428
 -22201274.56649 -17299686.46448  20763427.093    20763426.533
 95  3 13  8 29  0.0000000  0  7G21G 6G28G26G 1G23G17
 -11930969.68049  -9296856.74747  21931268.903    21931268.546
 -11831938.05448  -9219682.23446  23062859.050    23062859.988
  -8208694.682 8  -6396385.499 8  22958117.073    22958115.741    22958116.828
 -10120292.05548  -7885938.54446  23176999.872    23176999.473
  -6518390.72448  -5079264.18046  23895110.481    23895110.346
 -14974064.45049 -11668098.99248  20683865.811    20683865.475
 -22186588.68549 -17288242.92348  20766221.674    20766221.180
 95  3 13  8 29 30.0000000  0  7G21G 6G28G26G 1G23G17
 -11982952.28049  -9337362.66047  21921377.114    21921376.961
 -11724465.64148  -9135937.51946  23083310.470    23083308.576
  -8297303.606 8  -6465431.403 8  22941255.279    22941253.995    22941255.085
 -10043894.84948  -7826408.25046  23191537.886    23191537.273
  -6628190.65448  -5164822.58346  23874216.356    23874216.599
 -14961154.73349 -11658039.46848  20686322.262    20686321.996
 -22171624.87449 -17276582.80748  20769069.112    20769068.855
 95  3 13  8 30  0.0000000  0  7G21G 6G28G26G 1G23G17
 -12034658.98249  -9377653.58847  21911537.578    21911537.780
 -11616744.69948  -9051999.13446  23103809.360    23103809.861
  -8385574.250 8  -6534213.711 8  22924457.946    22924456.566    22924457.702
  -9967109.73548  -7766575.68546  23206149.760    23206149.221
  -6737909.23648  -5250317.54346  23853337.258    23853337.387
 -14947947.98649 -11647748.49248  20688835.551    20688835.078
 -22156376.28749 -17264700.79048  20771970.835    20771970.524
 95  3 13  8 30 30.0000000  0  7G21G 6G28G26G 1G23G17
 -12086109.81449  -9417745.13347  21901746.776    21901746.637
 -11508798.73148  -8967885.40346  23124350.745    23124350.285
  -8473511.325 8  -6602736.096 8  22907724.118    22907722.671    22907723.806
  -9889945.76048  -7706447.90746  23220833.718    23220832.130
  -6847545.20148  -5335748.15446  23832474.192    23832473.077
 -14934453.41449 -11637233.23248  20691403.504    20691402.995
 -22140856.25749 -17252607.26048  20774924.068    20774923.924
 95  3 13  8 31  0.0000000  0  7G21G 6G28G26G 1G23G17
 -12137299.96549  -9457633.54947  21892005.630    21892005.785
 -11400648.08448  -8883612.19846  23144931.091    23144930.354
  -8561117.559 8  -6671000.688 8  22891053.384    22891051.629    22891052.889
  -9812405.13548  -7646026.64446  23235589.233    23235588.490
  -6957083.83448  -5421102.90446  23811629.614    23811630.172
 -14920679.42649 -11626500.25348  20694024.605    20694024.056
 -22125084.01849 -17240317.20148  20777925.464    20777925.349
 95  3 13  8 31 30.0000000  0  7G21G 6G28G26G 1G23G17
 -12188223.20349  -9497313.98347  21882315.235    21882315.623
 -11292297.55848  -8799183.22346  23165549.240    23165549.085
  -8648381.303 8  -6738998.398 8  22874447.595    22874445.890    22874447.144
  -9734462.14848  -7585291.84746  23250421.399    23250420.386
  -7066500.34348  -5506362.51546  23790808.434    23790808.122
 -14906608.88249 -11615536.19148  20696702.143    20696701.506
 -22109052.58249 -17227825.17748  20780976.272    20780976.056
 95  3 13  8 32  0.0000000  0  7G21G 6G28G26G 1G23G17
 -12238895.48849  -9536798.87247  21872672.477    21872672.551
 -11183754.35048  -8714604.13046  23186204.259    23186203.320
  -8735306.504 8  -6806732.309 8  22857905.968    22857904.565    22857905.878
  -9656124.61148  -7524249.60946  23265328.583    23265327.315
  -7175800.20448  -5591531.23146  23770009.420    23770009.753
 -14892253.96349 -11604350.53448  20699433.727    20699433.253
 -22092752.38849 -17215123.73348  20784078.199    20784077.911
 95  3 13  8 32 30.0000000  0  7G21G 6G28G26G 1G23G17
 -12289333.92549  -9576101.54447  21863074.397    21863074.511
 -11075027.62848  -8629882.02446  23206894.038    23206893.940
  -8821909.263 8  -6874214.973 8  22841425.973    22841424.650    22841425.908
  -9577406.04548  -7462910.47846  23280308.236    23280307.505
  -7285002.39548  -5676623.83146  23749228.832    23749228.140
 -14877636.79949 -11592960.53448  20702215.197    20702214.886
 -22076206.09849 -17202230.52448  20787226.932    20787226.463
 95  3 13  8 33  0.0000000  0  7G21G 6G28G26G 1G23G17
 -12339508.33749  -9615198.47847  21853526.508    21853526.587
 -10966096.99748  -8545001.00946  23227622.511    23227623.133
  -8908174.589 8  -6941434.697 8  22825010.436    22825008.848    22825010.140
  -9498296.61248  -7401266.76046  23295362.408    23295360.620
  -7394100.08848  -5761635.00446  23728468.209    23728469.081
 -14862741.49749 -11581353.80148  20705049.762    20705049.330
 -22059412.60149 -17189144.68848  20790422.561    20790422.190
 95  3 13  8 33 30.0000000  0  7G21G 6G28G26G 1G23G17
 -12389415.17349  -9654086.91947  21844029.556    21844029.507
 -10856974.93548  -8459970.84346  23248387.920    23248389.113
  -8994101.916 8  -7008391.047 8  22808659.049    22808657.515    22808658.680
  -9418806.79548  -7339326.65046  23310489.075    23310487.708
  -7503125.34848  -5846589.72946  23707721.430    23707721.745
 -14847566.65849 -11569529.25048  20707937.425    20707936.940
 -22042367.36449 -17175862.68848  20793666.089    20793665.714
 95  3 13  8 34  0.0000000  0  7G21G 6G28G26G 1G23G17
 -12439074.39149  -9692782.40847  21834579.758    21834579.334
 -10747688.23048  -8374812.38746  23269184.702    23269185.945
  -9079708.465 8  -7075097.444 8  22792368.810    22792367.188    22792368.342
  -9338975.79248  -7277120.67646  23325680.500    23325678.546
  -7612106.12848  -5931509.80646  23686982.789    23686981.879
 -14832142.58549 -11557510.49248  20710872.521    20710871.929
 -22025099.86849 -17162407.49648  20796951.999    20796951.694
 95  3 13  8 34 30.0000000  0  7G21G 6G28G26G 1G23G17
 -12488451.75749  -9731258.26947  21825183.641    21825183.325
 -10638216.32948  -8289509.62346  23290016.659    23290017.366
  -9164959.623 8  -7141526.910 8  22776145.951    22776144.401    22776145.587
  -9258782.50648  -7214632.40046  23340940.816    23340939.221
  -7721021.10848  -6016378.60646  23666256.929    23666257.204
 -14816441.44649 -11545275.83448  20713860.423    20713859.963
 -22007605.63749 -17148775.62848  20800281.011    20800280.848
 95  3 13  8 35  0.0000000  0  7G21G 6G28G26G 1G23G17
 -12537529.92749  -9769500.99047  21815844.338    21815844.176
 -10528579.12748  -8204078.06646  23310880.138    23310880.965
  -9249842.649 8  -7207669.525 8  22759992.898    22759991.691    22759992.829
  -9178239.18548  -7151871.35946  23356267.687    23356265.781
  -7829856.18048  -6101185.14646  23645546.143    23645546.386
 -14800464.05249 -11532825.91348  20716900.766    20716900.478
 -21989868.32649 -17134954.35848  20803656.282    20803656.111
 95  3 13  8 35 30.0000000  0  7G21G 6G28G26G 1G23G17
 -12586323.24149  -9807521.74247  21806559.125    21806558.995
 -10418776.93848  -8118517.92146  23331774.646    23331775.537
  -9334354.843 8  -7273523.181 8  22743910.926    22743909.516    22743910.608
  -9097356.36148  -7088845.77846  23371658.784    23371657.200
  -7938588.22248  -6185911.42346  23624855.449    23624855.178
 -14784212.24249 -11520162.16048  20719993.380    20719992.824
 -21971868.97549 -17120928.89548  20807081.387    20807081.085
 95  3 13  8 36  0.0000000  0  7G21G 6G28G26G 1G23G17
 -12634846.83349  -9845332.32947  21797325.423    21797325.533
 -10308795.50848  -8032818.14246  23352703.543    23352704.613
  -9418496.088 8  -7339087.794 8  22727899.381    22727897.993    22727898.992
  -9016143.60448  -7025563.10846  23387113.017    23387110.744
  -8047192.41948  -6270538.06046  23604188.417    23604189.316
 -14767699.36849 -11507294.98248  20723135.576    20723135.211
 -21953603.52649 -17106696.08648  20810557.158    20810557.078
 95  3 13  8 36 30.0000000  0  7G21G 6G28G26G 1G23G17
 -12683087.43149  -9882922.39747  21788145.583    21788145.647
 -10198618.92648  -7946966.26346  23373669.554    23373670.080
  -9502253.555 8  -7404353.349 8  22711960.818    22711959.434    22711960.521
  -8934582.64148  -6962009.10646  23402633.570    23402632.426
  -8155649.17048  -6355049.81046  23583549.961    23583550.082
 -14750907.87149 -11494210.69648  20726330.847    20726330.424
 -21935038.29649 -17092229.66948  20814089.990    20814089.739
 95  3 13  8 37  0.0000000  0  7G21G 6G28G26G 1G23G17
 -12731068.90349  -9920310.55147  21779014.952    21779014.785
 -10088262.38748  -7860974.16046  23394670.036    23394670.430
  -9585636.352 8  -7469326.960 8  22696093.393    22696092.199    22696093.214
  -8852683.75648  -6898191.78546  23418218.079    23418216.129
  -8263942.85348  -6439434.47946  23562942.081    23562942.331
 -14733848.71649 -11480917.84648  20729577.323    20729576.815
 -21916158.69649 -17077518.29548  20817682.703    20817682.667
 95  3 13  8 37 30.0000000  0  7G21G 6G28G26G 1G23G17
 -12778818.09449  -9957517.70647  21769928.618    21769928.700
  -9977722.07648  -7774838.86946  23415705.154    23415706.109
  -9668650.045 8  -7534012.947 8  22680296.307    22680295.216    22680296.183
  -8770440.39848  -6834106.04746  23433868.677    23433868.109
  -8372090.58948  -6523705.42646  23542362.602    23542362.159
 -14716533.15549 -11467425.19748  20732872.371    20732871.986
 -21896968.82349 -17062565.15748  20821334.488    20821334.496
 95  3 13  8 38  0.0000000  0  7G21G28G 6G26G 1G23G17
 -12826352.33649  -9994557.36547  21760883.119    21760883.103
  -9751308.280 8  -7598421.955 8  22664566.979    22664565.865    22664566.867
  -9867025.84848  -7688582.07946  23436769.807    23436770.377
  -8687858.34848  -6769756.39446  23449583.306    23449582.764
  -8480120.06348  -6607884.23646  23521805.397    23521805.813
 -14698979.49949 -11453747.02048  20736212.724    20736212.297
 -21877488.48849 -17047385.67848  20825041.544    20825041.311
 95  3 13  8 38 30.0000000  0  7G21G28G 6G26G 1G23G17
 -12873661.73949 -10031421.82547  21751880.413    21751880.599
  -9833596.216 8  -7662542.419 8  22648908.017    22648907.012    22648908.020
  -9756179.21848  -7602208.08846  23457863.413    23457864.853
  -8604919.53748  -6705128.74746  23465366.139    23465364.910
  -8588007.02548  -6691951.97946  23501274.904    23501276.018
 -14681170.86049 -11439870.15548  20739601.516    20739601.014
 -21857709.35849 -17031973.37348  20828805.343    20828805.061
 95  3 13  8 39  0.0000000  0  7G21G28G 6G26G 1G23G17
 -12920735.24149 -10068102.46047  21742922.685    21742922.700
  -9915487.822 8  -7726354.054 8  22633324.701    22633323.566    22633324.573
  -9645155.78148  -7515696.34646  23478990.466    23478990.686
  -8521607.75048  -6640210.47246  23481219.855    23481219.217
  -8695724.09148  -6775887.34046  23480777.077    23480777.788
 -14663098.29449 -11425787.62848  20743040.660    20743039.899
 -21837632.73049 -17016329.25148  20832625.735    20832625.454
 95  3 13  8 39 30.0000000  0  7G21G28G 6G26G 1G23G17
 -12967579.61549 -10104604.55947  21734008.589    21734008.373
  -9996994.722 8  -7789865.913 8  22617814.659    22617813.242    22617814.354
  -9533959.98148  -7429050.28346  23500150.491    23500150.801
  -8437932.44148  -6575008.91246  23497142.797    23497140.538
  -8803301.04248  -6859713.49446  23460305.660    23460305.995
 -14644774.79149 -11411509.57048  20746527.575    20746526.843
 -21817292.93049 -17000480.06448  20836496.384    20836496.235
 95  3 13  8 40  0.0000000  0  7G21G28G 6G26G 1G23G17
 -13014208.04749 -10140938.38747  21725135.431    21725135.276
 -10078136.138 8  -7853092.983 8  22602373.998    22602372.554    22602373.704
  -9422607.78548  -7342282.35546  23521340.290    23521341.161
  -8353928.58048  -6509551.36146  23513128.306    23513126.982
  -8910749.84548  -6943439.81546  23439859.174    23439860.487
 -14626214.34849 -11397046.88548  20750059.498    20750058.854
 -21796723.33549 -16984451.81748  20840410.650    20840410.550
 95  3 13  8 40 30.0000000  0  7G21G28G 6G26G 1G23G17
 -13060607.56249 -10177093.84447  21716305.837    21716305.550
 -10158907.875 8  -7916031.992 8  22587003.533    22587002.146    22587003.383
  -9311086.88448  -7255382.97246  23542561.682    23542562.306
  -8269598.51548  -6443839.61146  23529175.531    23529174.351
  -9018072.18748  -7027067.58346  23419436.208    23419436.857
 -14607423.25449 -11382404.47248  20753635.241    20753634.785
 -21775926.98749 -16968246.87248  20844368.074    20844368.000
 95  3 13  8 41  0.0000000  0  7G21G28G 6G26G 1G23G17
 -13106739.22649 -10213040.58647  21707527.184    21707526.941
 -10239284.237 8  -7978662.915 8  22571708.507    22571707.078    22571708.223
  -9199372.50348  -7168332.82046  23563820.111    23563821.462
  -8184928.29748  -6377862.81646  23545287.913    23545286.822
  -9125278.54648  -7110604.99446  23399035.349    23399035.998
 -14588367.61549 -11367555.91948  20757261.256    20757260.875
 -21754881.13549 -16951847.50748  20848372.964    20848372.701
 95  3 13  8 41 30.0000000  0  7G21G28G 6G26G 1G23G17
 -13152624.48749 -10248795.32247  21698795.526    21698795.443
 -10319293.302 8  -8041007.629 8  22556483.361    22556481.849    22556483.022
  -9087514.62248  -7081170.85346  23585106.308    23585106.071
  -8099944.66448  -6311641.79046  23561459.865    23561458.824
  -9232409.32948  -7194083.52346  23378649.002    23378649.382
 -14569061.45949 -11352512.15648  20760935.176    20760934.812
 -21733593.30749 -16935259.59448  20852423.878    20852423.444
 95  3 13  8 42  0.0000000  0  7G21G28G 6G26G 1G23G17
 -13198248.83749 -10284346.75347  21690113.493    21690113.463
 -10398924.618 8  -8103057.992 8  22541329.978    22541328.521    22541329.712
  -8975522.24948  -6993904.06946  23606417.563    23606416.744
  -8014647.92148  -6245176.78746  23577691.439    23577689.986
  -9339448.84848  -7277490.91746  23358280.278    23358281.447
 -14549501.02149 -11337270.25648  20764657.270    20764656.875
 -21712031.30249 -16918458.03748  20856526.916    20856526.465
 95  3 13  8 42 30.0000000  0  7G21G28G 6G26G 1G23G17
 -13243611.49949 -10319694.27247  21681481.306    21681481.265
 -10478179.673 8  -8164815.168 8  22526248.076    22526246.754    22526247.857
  -8863419.34648  -6906551.17746  23627749.986    23627749.518
  -7929038.10648  -6178467.83446  23593982.446    23593981.496
  -9446389.38548  -7360821.19446  23337930.081    23337929.170
 -14529697.89349 -11321839.24548  20768425.755    20768425.111
 -21690184.65149 -16901434.68148  20860684.182    20860684.008
 95  3 13  8 43  0.0000000  0  7G21G28G 6G26G 1G23G17
 -13288716.14249 -10354840.74247  21672898.282    21672898.140
 -10557046.372 8  -8226269.732 8  22511240.087    22511238.885    22511239.999
  -8751216.11948  -6819120.09246  23649101.830    23649100.656
  -7843114.04948  -6111514.01446  23610332.969    23610332.274
  -9553204.52048  -7444053.75246  23317603.954    23317604.942
 -14509634.29349 -11306205.26948  20772243.898    20772243.420
 -21668038.62349 -16884178.04748  20864898.504    20864898.039
 95  3 13  8 43 30.0000000  0  7G21G28G 6G26G 1G23G17
 -13333561.52749 -10389785.18747  21664364.384    21664364.414
 -10635508.535 8  -8287409.074 8  22496309.380    22496308.093    22496309.132
  -8638900.73448  -6731601.61746  23670474.677    23670473.933
  -7756848.27748  -6044293.94646  23626748.934    23626748.045
  -9659848.68948  -7527153.10346  23297310.317    23297311.034
 -14489318.95749 -11290375.13948  20776109.588    20776109.318
 -21645586.04049 -16866682.53248  20869171.188    20869170.792
 95  3 13  8 44  0.0000000  0  7G21G28G 6G26G 1G23G17
 -13378135.01949 -10424517.77047  21655882.237    21655882.544
 -10713555.410 8  -8348224.818 8  22481457.600    22481456.205    22481457.337
  -8526448.42048  -6643976.44646  23691873.582    23691874.017
  -7670242.23948  -5976808.68746  23643229.564    23643227.925
  -9766303.65148  -7610105.01746  23277052.558    23277052.219
 -14468754.34349 -11274350.76448  20780022.886    20780022.455
 -21622837.87449 -16848956.70248  20873499.985    20873499.603
 95  3 13  8 44 30.0000000  0  7G21G28G 6G26G 1G23G17
 -13422463.47449 -10459059.41747  21647446.776    21647447.121
 -10791194.983 8  -8408723.182 8  22466683.150    22466681.856    22466683.042
  -8413867.47348  -6556251.04746  23713297.032    23713297.294
  -7583311.51348  -5909070.46446  23659771.568    23659770.774
  -9872572.19048  -7692911.65946  23256830.326    23256830.001
 -14447947.50549 -11258137.64148  20783982.255    20783981.784
 -21599825.49549 -16831024.98848  20877879.003    20877878.763
 95  3 13  8 45  0.0000000  0  7G21G28G 6G26G 1G23G17
 -13466547.27449 -10493410.41847  21639058.061    21639058.086
 -10868417.377 8  -8468896.470 8  22451988.365    22451986.946    22451988.117
  -8301140.12248  -6468411.56446  23734748.398    23734748.394
  -7496056.48848  -5841079.54746  23676375.534    23676374.698
  -9978659.93448  -7775577.42446  23236642.667    23236642.777
 -14426885.91849 -11241726.00948  20787990.260    20787989.771
 -21576557.86249 -16812894.37048  20882306.677    20882306.492
 95  3 13  8 45 30.0000000  0  7G21G28G 1G 6G26G23G17
 -13510386.88049 -10527571.14247  21630715.574    21630715.636
 -10945230.090 8  -8528750.526 8  22437371.370    22437369.861    22437371.071
 -10084572.07848  -7858106.34946  23216488.313    23216488.017
  -8188265.91048  -6380457.66045  23756227.633    23756227.691
  -7408487.07648  -5772843.64446  23693039.533    23693037.699
 -14405597.51049 -11225137.63448  20792041.327    20792041.009
 -21553042.28049 -16794570.54648  20886781.530    20886781.236
 95  3 13  8 46  0.0000000  0  7G21G28G 1G 6G26G23G17
 -13553982.48649 -10561541.73447  21622419.655    21622419.490
 -11021632.993 8  -8588285.249 8  22422832.297    22422830.936    22422832.097
 -10190310.98148  -7940500.28746  23196366.922    23196367.440
  -8075254.67748  -6292396.94546  23777732.958    23777733.237
  -7320627.90648  -5704381.94746  23709758.634    23709756.105
 -14384086.41249 -11208375.73648  20796134.776    20796134.363
 -21529264.66949 -16776042.53948  20891306.162    20891306.219
 95  3 13  8 46 30.0000000  0  7G21G28G 1G 6G26G23G17
 -13597348.69649 -10595333.57847  21614167.439    21614167.325
 -11097634.314 8  -8647507.049 8  22408369.624    22408368.334    22408369.539
 -10295889.71848  -8022769.41446  23176275.658    23176274.393
  -7962134.29748  -6204251.20745  23799259.072    23799256.312
  -7232487.99748  -5635701.50246  23726531.347    23726530.076
 -14362374.85449 -11191457.63248  20800266.289    20800265.832
 -21505228.05549 -16757312.71448  20895880.170    20895880.147
 95  3 13  8 47  0.0000000  0  7G21G28G 1G 6G26G23G17
 -13640470.18049 -10628934.72247  21605961.601    21605961.406
 -11173231.547 8  -8706413.979 8  22393984.115    22393982.655    22393983.868
 -10401313.01348  -8104917.43546  23156214.363    23156213.863
  -7848905.57848  -6116021.05245  23820805.567    23820804.399
  -7144059.75448  -5566796.38346  23743358.509    23743356.813
 -14340477.46149 -11174394.72448  20804433.236    20804432.630
 -21480920.85549 -16738372.04448  20900505.687    20900505.481
 95  3 13  8 47 30.0000000  0  7G21G28G 1G 6G26G23G17
 -13683323.17249 -10662326.65447  21597807.010    21597806.810
 -11248407.289 8  -8764992.474 8  22379678.696    22379677.185    22379678.428
 -10506573.34048  -8186938.44746  23136184.013    23136183.566
  -7735564.27448  -6027703.14445  23842373.859    23842371.425
  -7055329.85448  -5497656.19346  23760243.253    23760242.118
 -14318384.12649 -11157179.13648  20808637.547    20808637.203
 -21456313.60049 -16719197.56448  20905188.381    20905188.359
 95  3 13  8 48  0.0000000  0  7G21G28G 1G 6G26G23G17
 -13725934.14749 -10695530.00147  21589698.478    21589698.337
 -11323175.783 8  -8823253.632 8  22365450.862    22365449.214    22365450.413
 -10611708.18048  -8268861.67546  23116177.490    23116176.608
  -7622131.71848  -5939314.14846  23863958.398    23863956.251
  -6966330.13848  -5428305.77446  23777179.030    23777177.770
 -14296090.32149 -11139807.33848  20812879.890    20812879.562
 -21431427.17349 -16699805.55148  20909924.223    20909923.905
 95  3 13  8 48 30.0000000  0  7G21G28G 1G 6G26G23G17
 -13768291.33449 -10728535.59047  21581638.083    21581637.740
 -11397515.216 8  -8881180.459 8  22351304.228    22351302.864    22351304.083
 -10716700.07048  -8350673.53646  23096198.084    23096198.473
  -7508582.32648  -5850834.10745  23885565.898    23885564.411
  -6877037.31548  -5358726.94346  23794170.604    23794168.216
 -14273558.60449 -11122250.15248  20817167.514    20817167.110
 -21406254.05549 -16680190.14348  20914714.632    20914714.212
 95  3 13  8 49  0.0000000  0  7G21G28G 1G 6G26G23G17
 -13810427.37949 -10761368.86247  21573619.815    21573619.674
 -11471445.241 8  -8938788.269 8  22337235.765    22337234.396    22337235.678
 -10821563.95848  -8432385.63346  23076243.096    23076242.565
  -7394933.62548  -5762276.66345  23907192.573    23907191.796
  -6787486.72048  -5288947.27546  23811211.819    23811209.285
 -14250785.63849 -11104504.97848  20821501.071    20821500.762
 -21380812.95349 -16660365.91948  20919555.892    20919555.599
 95  3 13  8 49 30.0000000  0  7G21G28G 1G 6G26G23G17
 -13852343.86849 -10794031.05147  21565643.449    21565643.113
 -11544952.602 8  -8996066.731 8  22323247.852    22323246.439    22323247.640
 -10926280.52848  -8513982.93846  23056316.092    23056315.823
  -7281184.38448  -5673640.88345  23928838.456    23928838.939
  -6697683.09348  -5218970.42146  23828301.127    23828299.095
 -14227750.10749 -11086555.21348  20825884.588    20825884.131
 -21355089.86549 -16640321.95748  20924450.774    20924450.544
 95  3 13  8 50  0.0000000  0  7G21G28G 1G 6G26G23G17
 -13894039.90649 -10826521.46147  21557709.075    21557708.825
 -11618015.329 8  -9052998.724 8  22309344.384    22309343.089    22309344.228
 -11030800.41248  -8595427.00546  23036426.475    23036427.047
  -7167315.31348  -5584911.72945  23950507.180    23950509.057
  -6607600.68948  -5148776.34346  23845443.612    23845442.385
 -14204432.53349 -11068385.66848  20830321.696    20830321.223
 -21329075.54549 -16620051.06248  20929400.939    20929400.748
 95  3 13  8 50 30.0000000  0  7G21G28G 1G 6G26G23G17
 -13935495.62249 -10858824.60647  21549820.098    21549819.713
 -11690622.410 8  -9109575.669 8  22295527.665    22295526.424    22295527.484
 -11135084.17248  -8676687.06846  23016581.718    23016581.976
  -7053327.88948  -5496090.37545  23972197.911    23972197.882
  -6517214.40748  -5078345.47346  23862643.677    23862642.837
 -14180837.30549 -11049999.77348  20834811.608    20834811.230
 -21302755.46849 -16599541.91648  20934409.416    20934409.496
 95  3 13  8 51  0.0000000  0  7G21G28G 1G 6G26G23G17
 -13976705.73149 -10890936.37047  21541978.061    21541977.558
 -11762780.986 8  -9165803.127 8  22281796.544    22281795.166    22281796.250
 -11239148.32448  -8757775.99946  22996778.785    22996779.319
  -6939248.65848  -5407197.44846  23993906.618    23993906.624
  -6426535.90448  -5007686.89146  23879899.543    23879899.326
 -14156986.27949 -11031414.55848  20839350.298    20839350.007
 -21276125.48849 -16578791.28048  20939477.158    20939476.987
 95  3 13  8 51 30.0000000  0  7G21G28G 1G 6G26G23G17
 -14017663.70449 -10922851.66847  21534184.042    21534183.949
 -11834493.204 8  -9221682.769 8  22268150.093    22268148.789    22268149.927
 -11342986.04548  -8838688.48346  22977019.432    22977019.298
  -6825081.73848  -5318236.20645  24015631.591    24015632.414
  -6335561.00048  -4936797.34546  23897211.377    23897210.199
 -14132907.98849 -11012652.25548  20843932.524    20843932.067
 -21249196.51549 -16557807.67748  20944601.734    20944601.656
 95  3 13  8 52  0.0000000  0  7G21G28G 1G 6G26G23G17
 -14058343.00449 -10954549.81647  21526443.080    21526443.028
 -11905748.587 8  -9277206.435 8  22254590.827    22254589.290    22254590.540
 -11446589.35448  -8919418.32146  22957304.353    22957304.581
  -6710809.14948  -5229192.64946  24037377.031    24037377.530
  -6244274.58948  -4865665.10046  23914582.549    23914580.681
 -14108600.81849 -10993711.59848  20848557.943    20848557.573
 -21221974.84749 -16536595.98948  20949781.777    20949781.591
 95  3 13  8 52 30.0000000  0  7G21G28G 1G 6G26G23G17
 -14098738.70249 -10986026.97847  21518755.896    21518755.631
 -11976565.098 8  -9332388.129 8  22241114.977    22241113.430    22241114.651
 -11549984.31348  -8999985.81846  22937629.031    22937629.634
  -6596454.86548  -5140085.43245  24059138.062    24059137.148
  -6152703.95348  -4794311.33746  23932007.719    23932005.747
 -14084091.17749 -10974613.17448  20853221.949    20853221.600
 -21194477.60049 -16515169.56848  20955014.301    20955014.239
 95  3 13  8 53  0.0000000  0  7G21G28G 1G 6G26G23G17
 -14138863.42549 -11017292.98847  21511120.415    21511120.221
 -12046938.895 8  -9387224.848 8  22227723.298    22227721.751    22227722.895
 -11653179.48148  -9080397.62546  22917991.702    22917991.492
  -6482007.18048  -5050905.40846  24080916.832    24080917.590
  -6060854.21648  -4722740.12246  23949485.891    23949484.346
 -14059383.94949 -10955360.78648  20857923.628    20857923.158
 -21166709.28349 -16493531.92448  20960298.324    20960298.385
 95  3 13  8 53 30.0000000  0  7G21G28G 1G 6G26G23G17
 -14178723.22949 -11048352.56647  21503535.381    21503535.465
 -12116860.716 8  -9441709.379 8  22214417.417    22214416.020    22214417.246
 -11756153.19548  -9160636.87346  22898396.347    22898396.696
  -6367453.88148  -4961643.08945  24102715.669    24102717.918
  -5968715.65848  -4650943.84546  23967019.266    23967018.401
 -14034472.85049 -10935949.54148  20862664.127    20862663.446
 -21138673.17249 -16471685.61348  20965633.177    20965633.368
 95  3 13  8 54  0.0000000  0  7G21G28G 1G 6G26G23G17
 -14218344.77849 -11079226.49447  21495995.471    21495995.532
 -12186347.849 8  -9495855.196 8  22201194.385    22201193.030    22201194.323
 -11858938.53348  -9240729.32746  22878837.085    22878836.808
  -6252834.02048  -4872328.91845  24124527.552    24124527.535
  -5876313.80548  -4578942.40246  23984602.428    23984601.589
 -14009373.09249 -10916391.28748  20867440.522    20867439.773
 -21110378.44549 -16449637.77748  20971017.466    20971017.658
 95  3 13  8 54 30.0000000  0  7G21G28G 1G 6G26G23G17
 -14257766.48549 -11109944.69747  21488493.827    21488493.683
 -12255406.415 8  -9549667.060 8  22188052.994    22188051.681    22188052.841
 -11961545.72949  -9320682.97146  22859311.613    22859311.564
  -6138167.33948  -4782978.23845  24146348.040    24146348.748
  -5783667.64348  -4506750.59846  24002232.772    24002230.027
 -13984092.59749 -10896692.20148  20872251.104    20872250.489
 -21081812.33749 -16427378.48148  20976453.546    20976453.420
 95  3 13  8 55  0.0000000  0  7G21G28G 1G 6G26G23G17
 -14297005.70149 -11140520.70247  21481026.911    21481026.505
 -12324018.207 8  -9603130.790 8  22174996.758    22174995.272    22174996.412
 -12063974.36249  -9400497.48046  22839819.989    22839819.910
  -6023439.93148  -4693580.23645  24168180.088    24168180.117
  -5690779.32148  -4434370.08646  24019908.880    24019908.440
 -13958611.21549 -10876836.57848  20877099.982    20877099.452
 -21052946.84549 -16404885.89848  20981946.632    20981946.349
 95  3 13  8 55 30.0000000  0  7G17G21G28G 1G 6G26G23
 -21023781.71449 -16382159.83048  20987496.588    20987496.257
 -14336052.07949 -11170946.44247  21473596.571    21473596.403
 -12392179.035 8  -9656243.120 8  22162026.027    22162024.719    22162025.844
 -12166225.39849  -9480173.59946  22820362.422    22820362.800
  -5908667.11548  -4604146.88745  24190020.510    24190020.751
  -5597669.10948  -4361816.65946  24037627.348    24037624.758
 -13932927.91849 -10856823.61948  20881987.447    20881986.726
 95  3 13  8 56  0.0000000  0  7G17G21G28G 1G 6G26G23
 -20994285.00449 -16359175.39348  20993109.527    20993109.270
 -14374872.22849 -11201195.90147  21466209.191    21466209.176
 -12459860.927 8  -9708982.254 8  22149146.512    22149145.304    22149146.316
 -12268273.65949  -9559691.71146  22800943.281    22800942.825
  -5793817.40948  -4514653.61445  24211875.507    24211876.478
  -5504329.62448  -4289084.61546  24055388.950    24055386.870
 -13907018.16349 -10836634.20048  20886917.866    20886917.285
 95  3 13  8 56 30.0000000  0  7G21G17G28G 1G 6G26G23
 -14413461.77549 -11231265.66447  21458865.961    21458866.025
 -20964455.75849 -16335931.83048  20998785.841    20998785.730
 -12527061.473 8  -9761346.317 8  22136358.612    22136357.413    22136358.474
 -12370108.97748  -9639043.88746  22781564.351    22781564.162
  -5678873.91448  -4425087.25345  24233748.681    24233749.020
  -5410760.64048  -4216173.71346  24073194.142    24073193.758
 -13880880.27049 -10816267.00848  20891891.683    20891891.089
 95  3 13  8 57  0.0000000  0  7G21G17G28G 1G 6G26G23
 -14451784.04149 -11261127.16247  21451573.576    21451573.366
 -20934303.23149 -16312436.36248  21004523.797    21004523.776
 -12593768.686 8  -9813325.965 8  22123664.552    22123663.493    22123664.523
 -12471707.35949  -9718211.45346  22762230.858    22762230.635
  -5563829.43048  -4335442.21145  24255641.390    24255640.978
  -5316947.79948  -4143072.80046  24091046.440    24091044.446
 -13854508.88349 -10795717.87248  20896909.941    20896909.532
 95  3 13  8 57 30.0000000  0  7G21G17G28G 1G 6G26G23
 -14489816.27849 -11290762.66947  21444336.378    21444336.225
 -20903852.39749 -16288708.44748  21010318.464    21010318.216
 -12659987.719 8  -9864925.212 8  22111063.669    22111062.395    22111063.475
 -12573055.92949  -9797184.34646  22742945.014    22742943.870
  -5448695.33748  -4245727.30845  24277550.465    24277550.347
  -5222887.53448  -4069779.11846  24108945.244    24108944.000
 -13827912.86849 -10774993.70248  20901971.074    20901970.732
 95  3 13  8 58  0.0000000  0  7G21G28G17G 1G 6G26G23
 -14527560.20049 -11320173.51547  21437153.827    21437153.632
 -12725713.881 8  -9916140.403 8  22098556.512    22098555.172    22098556.250
 -20873105.89449 -16264750.14148  21016169.468    21016169.097
 -12674145.93249  -9875955.76746  22723708.244    22723708.350
  -5333462.77948  -4155935.68145  24299478.506    24299478.811
  -5128549.78648  -3996269.17846  24126897.217    24126896.282
 -13801087.73649 -10754091.00148  20907075.669    20907075.239
